GFSNGP_prec_cloud_069.txt.gz
Cloud_Cover
33 100 100 100 100 98 100 100 99 6 73 5 100 91 81 10 43 71 4 3 0 0 0 2 9 83 98 100 100 98 100 100 100 100 100 100 100 100 100 100 100 100 100 100
100 100 100 100 100 100 100 100 100 100 75 99 100 100 10 26 49 70 48 18 4 0 0 1 7 47 100 100 100 100 100 100 100 100 100 100 100 100 100 100 100 100 100 100
100 100 100 100 87 100 100 100 100 32 57 5 100 97 84 100 21 11 1 3 2 0 0 0 17 37 72 86 99 100 100 100 100 100 100 100 100 98 100 100 100 100 100 100
100 100 63 58 100 100 100 100 100 100 89 99 100 100 100 90 85 80 35 14 20 0 0 7 17 4 10 22 40 69 99 100 100 89 100 100 100 100 100 90 100 93 59 59
100 100 98 100 100 100 100 100 100 100 88 98 100 42 100 100 79 34 5 0 5 5 0 0 3 5 5 0 6 49 88 94 100 100 100 100 100 89 94 34 80 98 100 100
100 100 100 99 100 100 100 100 100 100 100 100 81 95 100 100 73 16 33 7 5 5 5 5 2 4 5 72 100 100 100 100 98 79 56 47 35 21 7 53 86 64 95 50
100 100 100 100 100 100 100 100 100 100 100 88 11 95 100 100 100 96 6 6 5 5 5 5 5 5 5 16 17 4 10 6 83 79 51 98 45 7 21 74 99 100 98 100
100 87 100 100 100 100 100 100 100 100 100 7 47 70 99 100 100 83 100 16 5 5 5 5 5 5 4 0 0 5 5 30 74 2 5 50 98 100 100 100 100 100 100 64
100 100 100 100 100 100 100 100 100 100 99 17 6 98 95 100 100 100 100 6 5 44 86 30 5 5 5 0 2 5 5 20 4 0 1 5 97 100 100 100 60 48 63 38
100 100 100 100 100 100 100 96 97 100 93 51 53 100 100 100 99 93 88 26 6 61 74 22 35 6 5 5 6 15 28 71 8 5 3 11 83 100 95 86 100 98 99 85
100 100 100 100 100 100 100 100 100 74 34 99 7 22 100 100 100 100 100 99 24 71 44 60 41 42 50 33 26 99 100 31 8 5 5 8 52 65 100 93 99 98 94 96
100 100 100 100 100 100 100 100 100 93 84 91 52 10 97 100 98 100 100 99 100 100 84 88 86 100 100 100 100 100 100 67 28 60 35 57 98 100 100 100 100 100 94 100
100 100 100 100 100 100 100 100 100 100 100 100 76 38 86 100 100 100 100 100 100 100 100 100 100 100 100 100 100 100 100 100 100 98 100 100 100 100 100 100 100 100 100 100
100 100 100 100 100 100 100 100 100 100 85 99 99 52 99 100 100 100 100 100 100 100 100 99 100 100 100 100 100 100 100 100 100 100 100 100 100 100 100 100 100 100 100 100
100 100 100 100 100 100 100 100 100 100 100 100 100 100 100 100 100 100 100 100 96 100 100 100 100 100 100 100 100 100 100 100 100 100 100 100 100 100 100 100 100 100 100 100
100 100 100 100 100 100 100 100 100 100 100 100 100 100 100 100 100 100 100 100 100 100 100 100 100 100 100 100 100 100 100 100 100 100 100 100 100 100 100 100 100 100 100 100
100 100 100 100 100 100 100 100 100 100 100 100 100 100 100 100 100 100 100 100 100 100 100 100 100 100 100 100 100 100 100 100 100 100 100 100 100 100 100 100 100 100 100 100
100 100 100 100 92 100 100 100 100 100 100 100 100 100 100 100 100 100 100 100 100 100 100 100 100 100 100 100 100 100 100 100 100 100 100 100 100 100 100 100 100 100 100 100
84 82 90 100 100 100 100 100 100 100 100 100 100 100 100 100 100 100 100 100 100 100 100 100 100 100 100 100 100 100 100 100 100 100 100 100 100 100 100 100 100 100 100 100
100 100 100 100 100 100 100 100 100 100 100 100 100 100 100 100 100 100 100 100 100 100 100 100 100 100 100 100 100 100 100 100 100 100 100 100 100 100 100 100 100 100 100 100
100 100 100 100 100 100 100 100 100 100 100 100 100 100 100 100 100 100 100 100 100 100 100 100 100 100 100 100 100 100 100 100 100 100 100 100 100 100 100 100 100 100 100 100
100 100 100 100 100 100 100 100 100 100 100 100 100 100 100 100 100 100 100 100 100 100 100 100 100 100 100 100 100 100 100 100 100 100 100 100 100 100 95 96 96 100 100 100
100 100 100 100 100 100 100 100 100 100 100 100 100 100 100 100 100 100 100 100 100 100 100 100 100 100 100 100 100 100 100 100 100 100 100 100 100 100 100 100 100 100 100 96
100 100 100 100 100 100 100 100 100 100 100 100 100 100 100 100 100 100 100 100 100 100 100 100 100 100 100 100 100 100 100 92 83 85 86 80 99 79 70 100 100 100 100 98
100 100 100 100 100 100 100 100 100 100 100 100 100 100 100 100 100 100 100 100 100 100 100 100 100 100 100 88 64 72 69 92 100 94 100 100 100 94 52 96 100 100 100 93
100 100 100 100 100 100 100 100 100 100 100 100 100 100 100 100 100 100 100 100 100 100 98 100 100 88 68 66 98 95 61 82 77 75 74 82 74 43 84 100 90 83 67 60
100 100 100 100 100 100 100 100 100 100 100 100 100 100 100 100 100 100 100 100 100 100 96 79 75 56 43 47 53 72 8 21 99 98 28 45 69 100 73 56 40 11 52 53

GFSNGP_prec_cloud_072.txt.gz
Cloud_Cover
100 100 100 100 100 100 100 100 70 100 82 100 65 98 92 100 100 63 62 38 4 0 3 50 39 35 36 57 43 100 100 100 100 100 100 100 100 100 100 100 100 100 100 100
100 100 100 92 100 100 100 100 100 100 100 100 100 70 24 87 100 18 99 5 3 4 0 55 100 100 100 100 100 94 100 100 100 100 100 100 100 100 100 100 100 100 100 100
100 100 100 96 100 96 72 99 100 100 100 100 100 99 7 40 99 70 13 6 10 15 5 42 100 100 100 100 100 100 100 100 100 100 100 100 100 100 100 100 100 100 100 100
100 100 100 92 100 100 100 100 100 100 100 100 100 95 69 94 89 100 100 88 59 92 20 92 100 100 100 100 100 100 100 100 100 100 100 100 100 100 100 100 100 100 100 100
100 100 100 100 100 100 100 100 100 100 100 100 100 96 76 11 12 14 86 78 32 5 29 80 100 100 100 100 100 100 100 100 100 100 100 100 100 100 100 100 87 96 100 100
100 100 100 100 100 100 100 76 100 100 100 100 96 13 98 100 100 98 85 48 19 8 23 26 46 42 92 100 100 100 100 100 100 100 100 100 100 100 86 18 66 100 100 100
99 100 100 100 100 100 100 58 100 100 100 100 90 100 100 100 100 100 10 73 74 6 99 100 30 5 15 50 91 87 100 100 100 100 100 95 69 52 24 42 91 99 94 91
68 57 100 100 100 100 99 63 100 100 100 100 57 97 100 100 100 100 40 95 71 7 25 73 46 66 81 36 55 100 100 100 88 42 14 6 7 5 20 10 0 19 27 20
98 100 100 100 100 100 100 88 100 100 100 100 100 100 100 100 100 82 97 100 88 15 26 78 96 100 100 100 82 10 11 5 56 49 6 41 46 5 26 47 7 7 5 7
74 100 100 100 100 100 100 100 100 100 100 100 100 100 100 100 100 100 100 100 96 91 82 97 100 100 100 100 100 22 26 81 100 48 41 50 68 73 97 28 21 5 28 96
66 100 100 100 100 100 100 100 100 98 100 100 90 87 100 100 100 100 98 63 82 99 100 100 100 100 100 100 100 100 76 100 100 100 100 85 100 100 100 100 84 86 97 97
94 100 100 96 100 100 100 100 100 100 100 100 94 90 100 100 100 82 94 93 97 100 100 100 100 100 82 54 95 100 98 100 100 100 100 100 92 93 100 100 100 100 100 100
21 93 94 71 100 100 100 100 100 100 100 100 100 100 100 96 74 75 100 100 100 100 100 100 100 100 100 100 100 100 100 100 100 100 100 100 100 100 100 100 100 100 100 100
23 60 96 86 100 100 100 100 100 100 100 100 100 100 100 100 98 100 100 100 100 100 100 98 95 100 100 100 100 100 100 100 100 100 100 100 100 99 100 100 100 100 100 100
12 100 100 100 100 100 100 100 100 100 100 100 100 100 100 100 100 100 100 100 100 100 100 100 100 100 100 100 100 100 100 100 100 100 100 100 100 100 100 100 100 100 100 100
65 100 100 100 100 100 100 100 100 100 100 100 100 100 100 100 100 100 100 100 100 100 100 100 100 100 100 100 100 100 100 100 100 100 100 100 100 100 100 100 100 100 100 100
7 100 100 100 100 100 100 100 100 100 100 100 100 100 100 100 100 100 100 100 100 100 100 100 100 100 100 100 100 100 100 100 100 100 100 100 100 100 100 100 100 100 100 100
84 66 78 99 100 100 100 100 100 100 100 100 100 100 100 100 100 100 100 100 100 100 100 100 100 100 100 100 100 100 100 100 100 100 100 100 100 100 100 100 100 100 100 100
98 100 100 100 100 100 100 100 100 100 100 100 100 100 100 100 100 100 100 100 100 100 100 100 100 100 100 100 100 100 98 98 100 100 100 100 100 100 100 100 100 100 100 100
100 100 100 100 100 100 100 100 100 100 100 100 100 100 100 100 100 100 100 100 100 100 100 100 100 100 100 100 100 100 99 95 95 99 100 100 100 100 100 100 100 100 100 100
100 100 100 100 100 100 100 100 100 100 100 100 100 100 100 100 100 100 100 100 100 100 100 100 100 100 100 100 100 100 100 100 97 99 100 100 100 100 100 100 100 100 100 99
100 100 100 100 100 100 100 100 100 100 100 100 100 100 100 100 100 100 100 100 100 100 100 100 100 100 90 86 81 100 99 98 100 100 100 98 86 91 93 92 87 80 86 85
100 100 100 100 100 100 100 100 100 100 100 100 100 100 100 100 100 100 100 100 100 100 100 100 100 100 94 86 95 97 99 82 89 89 95 100 95 80 73 86 84 83 99 100
100 100 100 100 100 100 100 100 100 100 100 100 100 100 100 100 100 100 100 100 100 100 100 100 98 72 58 60 64 81 92 99 100 100 72 87 83 78 100 99 77 94 99 97
100 100 100 100 100 100 100 100 100 100 100 100 100 100 100 100 100 100 100 100 100 100 100 91 93 93 88 82 90 97 100 98 99 94 86 99 100 100 100 99 96 82 74 74
100 100 100 100 100 100 100 100 100 100 100 100 100 100 100 100 100 100 100 100 100 100 100 100 92 85 88 96 82 73 100 97 74 82 92 92 100 100 99 61 50 58 81 100
100 100 100 100 100 100 100 100 100 100 100 100 100 100 100 100 100 100 100 100 91 46 19 66 78 47 18 44 45 98 87 75 22 14 74 100 100 100 99 96 99 100 58 100

GFSNGP_prec_cloud_075.txt.gz
Cloud_Cover
1 56 100 88 100 100 97 24 52 100 100 50 100 100 100 97 61 15 87 48 1 0 2 16 10 0 0 0 0 0 0 43 100 100 100 100 100 100 100 100 100 100 100 100
99 100 100 100 75 99 100 23 5 53 100 34 19 100 100 100 100 87 100 97 6 87 52 0 0 5 60 74 26 0 12 75 100 100 100 100 100 100 100 100 100 100 100 100
73 100 100 87 100 100 100 68 94 92 100 100 94 55 100 100 100 100 60 96 100 86 100 21 9 50 78 100 93 56 57 100 100 100 100 100 100 100 100 100 100 100 100 100
100 100 97 60 100 100 100 100 100 100 100 100 100 72 100 100 100 100 60 62 90 100 100 46 62 100 100 100 100 100 100 100 100 100 100 100 100 100 100 100 100 100 100 100
100 100 52 100 100 100 100 100 100 100 100 100 84 81 100 100 100 100 63 26 27 5 79 99 94 100 100 100 100 100 100 100 100 100 100 100 100 100 100 100 100 100 100 100
100 100 60 100 100 100 100 100 100 100 72 100 89 100 87 100 100 100 58 24 34 45 86 100 100 100 100 100 100 100 100 100 100 100 100 100 100 100 100 100 100 100 100 100
100 100 88 100 100 100 92 100 100 100 69 100 100 100 100 87 100 100 100 100 100 67 100 100 100 100 100 100 100 100 100 100 100 100 100 100 100 100 100 100 100 100 100 100
100 94 79 100 100 100 95 100 100 100 100 100 100 85 100 92 100 100 100 100 100 100 100 100 100 98 100 100 100 100 100 100 100 100 100 100 100 100 100 100 100 100 100 100
100 96 100 100 100 100 100 100 100 100 100 100 100 100 100 81 100 100 100 100 100 100 100 100 100 100 100 97 94 98 100 100 100 100 100 100 100 100 100 100 100 100 100 100
98 99 100 100 100 100 100 100 100 100 100 100 100 100 100 100 100 100 100 100 100 100 100 100 100 100 99 93 64 100 100 100 100 100 100 94 94 89 96 98 100 100 100 100
100 100 100 100 100 100 100 100 100 100 100 100 100 96 96 100 100 100 100 100 100 100 100 100 100 100 100 69 59 57 35 88 100 100 100 99 100 100 100 100 100 100 100 100
7 94 77 72 100 100 100 100 100 100 100 100 100 100 100 100 97 99 100 100 100 100 100 100 100 100 100 100 100 100 99 100 100 100 100 100 100 100 100 100 100 100 100 100
53 95 79 84 100 100 100 100 100 100 100 100 100 100 100 100 100 100 100 100 100 100 100 100 100 100 100 100 100 100 100 100 100 100 100 100 100 100 100 100 100 100 100 100
100 91 42 86 99 100 100 100 100 100 100 100 100 100 100 100 100 100 100 100 100 100 100 100 100 100 100 100 100 100 100 100 100 100 100 100 100 100 100 100 100 100 100 100
91 98 58 38 91 100 100 100 100 100 100 100 100 100 100 100 100 100 100 100 100 100 100 100 97 100 100 100 100 100 100 100 100 100 100 100 100 100 100 100 100 100 100 100
89 100 80 92 86 100 100 100 100 100 100 100 100 100 100 100 100 100 100 100 100 100 100 100 100 100 100 100 100 100 100 100 100 100 100 100 100 100 100 100 100 100 100 100
100 100 100 78 99 88 100 100 100 100 100 100 100 100 100 100 100 100 100 100 100 100 100 100 100 100 100 100 100 100 100 100 100 100 100 97 89 89 89 82 90 100 98 90
100 100 100 99 89 90 90 100 100 100 100 100 100 100 100 100 100 100 100 100 100 100 100 100 100 100 100 100 100 100 100 100 100 100 89 92 91 83 80 87 89 86 83 89
100 100 100 100 100 100 100 100 100 100 100 100 100 100 100 100 100 100 100 100 100 100 100 100 100 100 100 100 100 100 100 100 90 91 90 100 100 99 100 100 100 95 97 89
100 100 100 100 100 100 100 100 100 100 100 100 100 100 100 100 100 100 100 100 100 100 100 100 100 100 100 100 100 100 100 100 96 100 89 88 88 100 100 100 100 100 100 100
100 100 100 100 100 100 100 100 100 100 100 100 100 100 100 100 100 100 100 100 100 100 100 100 100 100 100 100 100 100 100 100 98 77 73 100 99 93 95 100 100 100 95 82
100 100 100 100 100 100 100 100 100 100 100 100 100 100 100 100 100 100 100 100 100 100 100 100 100 100 100 100 100 100 100 99 78 99 70 70 82 100 95 95 100 100 100 100
100 100 100 100 100 100 100 100 100 100 100 100 100 100 100 100 100 100 100 100 100 100 100 100 100 100 100 100 100 100 98 94 81 79 82 97 100 100 100 100 100 98 94 78
100 100 100 100 100 100 100 100 100 100 100 100 100 100 100 100 100 100 100 100 100 100 100 100 100 100 100 100 100 100 100 100 100 100 68 94 100 100 100 100 100 100 91 98
100 100 100 100 100 100 100 100 100 100 100 100 100 100 100 100 100 100 100 100 100 100 100 100 100 100 100 100 100 100 100 100 100 99 100 100 100 100 100 97 92 69 82 100
100 100 100 100 100 100 100 100 100 100 100 100 100 100 100 100 100 100 100 100 100 100 100 100 100 96 59 72 100 100 96 74 44 33 98 100 100 100 100 84 97 99 100 100
100 100 100 100 100 100 100 100 100 100 100 100 100 100 100 100 95 99 100 100 100 76 70 38 38 88 100 100 100 95 70 58 73 88 100 100 100 100 100 100 100 100 90 92

GFSNGP_prec_cloud_078.txt.gz
Cloud_Cover
3 0 0 1 5 100 32 6 4 59 98 100 100 100 100 100 100 100 100 96 72 11 5 2 0 0 0 0 0 0 0 0 28 98 86 100 88 100 100 100 100 100 100 100
5 1 0 0 9 16 5 5 6 12 43 100 100 100 100 100 100 100 100 100 100 47 40 5 73 5 1 0 0 0 0 4 0 4 53 86 100 100 100 100 100 100 100 100
52 5 0 6 0 0 2 3 3 7 98 100 100 100 100 100 100 100 100 100 100 100 94 98 100 67 8 58 9 1 5 14 79 99 100 100 100 100 100 100 100 100 100 100
95 85 20 3 7 75 92 24 14 26 93 100 100 100 99 100 100 100 100 100 100 100 100 81 100 60 98 100 84 82 94 100 100 100 100 100 100 100 100 100 100 100 100 100
100 98 24 5 89 100 93 70 54 52 99 100 100 100 100 100 100 100 100 100 100 100 100 37 42 68 100 100 100 100 100 100 100 100 100 100 100 100 100 100 100 100 100 100
100 100 100 91 53 100 30 54 100 100 100 100 100 100 100 100 100 100 100 100 100 100 100 99 100 100 100 100 100 100 100 100 100 100 100 100 100 100 100 100 100 100 100 100
100 100 70 100 100 100 94 98 100 100 100 100 100 100 100 100 100 100 100 100 100 100 100 100 100 100 100 100 100 100 100 100 100 100 100 100 100 100 100 100 100 100 100 100
100 100 100 100 100 100 99 100 100 100 100 100 100 100 100 100 100 100 100 100 100 100 100 100 100 100 100 100 100 100 100 100 100 100 100 100 100 100 100 100 100 100 100 100
100 72 58 100 100 100 100 100 100 100 100 100 100 100 100 100 100 100 100 100 100 100 100 100 100 100 100 100 100 100 100 100 100 100 100 100 100 100 100 100 100 100 100 100
100 100 100 88 100 100 100 98 100 100 100 100 100 100 100 100 100 100 100 100 100 100 100 100 100 100 100 100 100 100 100 100 100 100 100 100 100 100 100 100 100 100 100 100
17 44 50 32 99 100 100 84 100 100 100 100 100 100 100 100 100 98 100 100 100 100 100 100 100 100 100 99 93 100 100 100 96 98 97 100 100 100 100 100 100 100 99 100
100 96 99 100 100 100 100 95 100 100 100 100 100 100 93 65 100 100 100 100 100 100 100 100 100 100 100 76 99 80 95 100 98 87 98 94 100 100 100 100 100 100 100 100
3 2 0 30 100 54 92 100 100 100 100 100 100 100 100 100 100 100 100 100 100 100 100 100 100 100 100 100 100 100 100 100 100 100 100 100 100 100 100 100 100 100 90 100
38 33 12 51 100 100 85 100 100 100 100 100 100 96 100 100 100 100 100 100 100 100 100 100 100 100 100 100 100 100 100 100 100 100 100 100 100 100 100 100 100 100 100 99
12 61 94 52 100 100 85 100 100 100 100 100 100 100 100 100 100 100 100 100 100 100 100 100 100 100 100 100 100 100 100 100 100 100 100 100 100 100 100 100 100 100 100 100
98 97 44 79 95 100 100 100 100 100 100 100 100 100 100 100 100 99 100 100 100 100 100 100 100 100 100 100 100 100 100 100 100 100 100 100 100 100 100 95 83 92 100 100
100 90 92 100 100 98 100 100 100 99 99 100 100 100 100 100 100 100 100 100 100 100 100 100 100 100 100 100 100 100 100 100 100 100 100 100 100 100 100 98 94 100 100 100
100 100 100 100 100 84 100 100 100 100 99 100 100 100 100 100 100 100 100 100 100 100 100 100 100 100 100 100 100 100 100 100 100 100 100 100 100 100 100 100 100 92 100 73
100 100 100 100 100 100 100 100 100 100 100 93 100 100 100 100 100 100 100 100 100 100 100 100 100 100 100 100 100 100 100 100 100 100 100 100 100 98 100 100 86 94 70 66
100 100 100 100 100 100 100 100 100 100 100 100 100 100 100 100 100 100 100 100 100 100 100 100 100 100 100 100 100 100 100 100 100 100 100 100 100 100 100 66 79 94 99 100
100 100 100 100 100 100 100 100 100 100 100 100 100 100 100 100 100 100 100 100 100 100 100 100 100 100 100 100 100 100 100 100 100 100 100 100 100 98 69 93 100 100 100 100
100 100 100 100 100 100 100 100 100 100 100 100 100 100 100 100 100 100 100 100 100 100 100 100 100 100 100 100 100 100 100 100 100 100 100 68 81 100 100 100 100 100 100 100
100 100 100 100 100 100 100 100 100 100 100 100 100 100 100 100 100 100 100 100 100 100 100 100 100 100 100 100 100 100 100 100 76 58 90 99 100 100 100 100 100 100 100 82
100 100 100 100 100 100 100 100 100 100 100 100 100 100 100 100 100 100 100 100 100 100 100 100 100 100 95 92 97 100 96 67 86 92 100 100 100 100 100 100 47 63 65 91
100 100 100 100 100 100 100 100 100 100 100 100 100 100 100 100 100 100 100 100 100 100 100 100 89 94 100 100 78 83 100 98 93 95 100 100 100 100 100 100 100 100 100 100
100 100 100 100 100 100 100 100 100 100 100 100 100 100 100 100 100 100 100 100 100 100 100 100 92 77 89 95 87 82 48 48 80 82 100 100 100 100 100 100 100 99 100 100
100 100 100 100 100 100 100 100 100 100 100 100 100 100 100 100 100 100 100 100 100 100 100 100 100 100 100 100 99 99 100 100 100 100 100 100 100 100 100 100 100 100 86 40

GFSNGP_prec_cloud_081.txt.gz
Cloud_Cover
69 81 75 70 71 77 100 88 11 90 16 81 100 100 100 100 100 100 100 87 100 100 87 91 5 5 5 5 5 3 0 0 0 20 86 98 100 74 100 100 100 100 100 100
50 5 5 5 5 5 5 5 6 100 22 100 100 100 100 100 100 100 100 100 100 100 100 100 100 11 3 5 5 5 5 5 1 0 0 0 18 99 100 100 100 100 98 84
7 6 59 21 0 5 5 4 5 5 21 53 100 100 100 100 100 100 100 100 100 100 100 100 100 100 85 5 5 5 5 8 5 3 2 0 8 94 100 100 100 100 100 100
80 100 100 60 0 0 0 0 0 1 0 2 46 100 67 39 99 100 100 100 100 100 100 100 100 100 97 43 87 11 80 5 13 34 75 84 100 100 100 100 100 100 100 100
100 100 100 100 93 56 5 3 17 5 49 95 27 100 67 100 100 100 100 100 100 100 100 100 100 100 100 100 100 51 82 96 99 99 100 100 100 100 100 100 100 100 100 100
100 100 100 100 100 100 39 10 100 100 43 85 47 100 100 100 79 100 100 100 100 100 100 100 100 93 100 100 98 100 100 100 100 100 100 100 100 100 100 100 100 100 100 100
100 100 100 100 100 100 100 98 100 100 59 61 84 100 100 100 100 100 100 100 100 100 100 100 100 100 100 100 100 100 100 100 100 100 100 100 100 100 100 100 100 100 100 100
100 100 100 100 97 100 100 100 97 100 98 20 100 90 100 100 100 100 100 100 100 100 100 100 100 100 100 100 100 100 100 100 100 100 100 100 100 100 100 100 100 100 100 100
100 100 100 100 100 100 100 100 100 100 100 73 100 100 100 100 100 100 100 100 100 100 100 100 100 100 100 100 100 100 100 100 100 100 100 100 100 100 100 100 100 100 100 100
100 100 100 100 100 100 90 94 100 100 99 25 100 100 100 100 100 100 100 100 100 100 100 100 100 100 100 100 100 100 100 100 100 100 100 100 100 100 100 100 100 100 100 100
76 100 100 100 100 100 90 100 96 70 22 35 100 100 100 100 100 100 100 100 100 100 100 100 100 100 100 100 100 100 100 100 100 100 100 100 100 100 100 100 100 100 100 100
67 100 100 100 100 100 100 98 100 96 11 44 100 100 100 100 100 100 100 100 100 100 100 100 100 100 100 100 100 100 100 100 100 100 100 100 100 100 100 100 100 100 100 100
54 100 100 100 100 100 100 99 99 100 62 63 100 100 100 100 100 100 100 100 100 100 100 100 100 100 100 100 100 100 100 100 100 100 100 100 100 100 100 100 100 100 100 100
100 59 65 100 100 100 98 100 100 99 99 100 100 100 100 100 100 100 100 100 100 100 100 100 100 100 100 100 100 100 100 100 100 100 100 100 100 100 100 100 100 100 100 100
82 100 100 100 79 100 26 91 88 74 66 100 97 100 100 100 100 100 100 100 100 100 100 100 100 100 100 100 100 100 100 100 100 100 100 100 100 100 100 100 100 100 100 100
99 100 100 100 98 36 17 7 97 100 100 100 100 100 100 100 100 100 100 100 100 100 100 100 100 100 100 100 100 100 100 100 100 100 100 100 100 100 100 100 100 100 100 100
100 100 100 100 100 100 83 80 74 100 100 100 100 100 100 100 100 100 100 100 100 100 100 100 100 100 100 100 100 100 100 100 100 100 100 100 100 100 100 100 100 100 100 86
100 100 100 100 100 100 100 100 96 100 100 100 100 99 100 100 100 100 100 100 100 100 100 100 100 100 100 100 100 100 100 100 100 100 100 100 100 100 100 100 100 100 100 91
99 99 98 100 100 100 100 100 100 100 100 100 100 100 100 100 100 100 100 100 100 100 100 100 100 100 100 100 100 100 100 100 100 100 100 100 100 100 100 100 100 100 100 100
100 100 100 100 100 100 100 100 100 100 100 100 100 100 100 100 100 100 100 100 100 100 100 100 100 100 100 100 100 100 100 100 100 100 100 96 100 100 100 100 100 100 100 100
100 100 100 100 100 100 100 100 100 100 100 100 100 100 100 100 100 100 100 100 100 100 100 100 100 100 100 100 100 100 100 100 100 100 100 100 100 100 98 100 92 100 100 100
100 100 100 100 100 100 100 100 100 100 100 100 100 100 100 100 100 100 100 100 100 100 100 100 100 100 100 100 100 100 100 100 100 100 100 100 100 100 98 92 88 80 66 64
100 100 100 100 100 100 100 100 100 100 100 100 100 100 100 100 100 100 100 100 100 100 100 100 100 100 100 100 100 100 100 100 100 100 100 96 83 77 86 98 73 62 59 61
100 100 100 100 100 100 100 100 100 100 100 100 100 100 100 100 100 100 100 100 100 100 100 100 100 100 100 100 100 100 100 100 100 100 100 100 100 84 79 62 59 66 79 88
100 100 100 100 100 100 100 100 100 100 100 100 100 100 100 100 100 100 100 100 100 100 100 100 100 100 100 100 100 100 100 100 100 95 81 82 84 78 75 79 76 78 88 98
100 100 100 100 100 100 100 100 100 100 100 100 100 100 100 100 100 100 100 100 100 100 100 100 100 100 100 100 94 94 88 89 72 84 74 87 83 81 66 61 70 82 90 91
100 100 100 100 100 100 100 100 100 100 100 100 100 100 100 100 100 100 100 100 100 100 100 100 100 100 100 99 100 96 98 96 77 97 93 86 67 68 69 77 89 91 94 98

GFSNGP_prec_cloud_084.txt.gz
Cloud_Cover
100 100 95 100 100 100 100 100 87 100 70 100 100 100 99 100 100 98 100 78 96 100 100 100 100 99 5 22 5 1 0 0 0 0 10 90 74 10 7 100 82 86 74 52
7 100 35 5 38 99 100 100 62 100 99 100 100 100 100 100 97 98 100 100 100 97 100 100 100 100 100 100 100 8 5 5 0 0 0 0 0 35 100 96 87 86 99 100
5 57 93 8 5 5 5 14 57 14 100 100 100 100 100 100 100 100 86 100 98 100 100 100 100 100 100 61 17 52 58 41 7 4 0 0 0 0 0 72 100 100 82 100
15 14 10 1 38 70 7 5 5 5 16 73 55 85 100 100 100 70 12 100 69 98 100 100 100 100 100 100 100 100 99 70 36 25 5 5 4 0 20 99 100 100 100 100
26 77 13 35 100 100 100 16 22 5 89 84 5 5 16 60 9 64 74 89 88 100 100 100 100 100 100 100 100 87 100 100 100 37 62 77 39 96 100 94 100 100 100 100
7 90 67 100 100 100 100 50 49 10 35 5 5 5 12 76 8 18 100 32 100 100 100 100 100 100 100 100 58 56 99 100 100 100 100 97 100 100 100 100 100 100 100 100
44 100 94 100 100 100 100 100 100 36 99 100 38 12 63 22 5 5 60 12 51 100 100 100 100 100 100 100 100 84 76 100 100 100 100 100 100 100 100 100 100 100 100 100
95 100 100 100 100 100 100 100 100 100 100 98 100 92 14 5 5 6 36 97 83 100 100 100 100 100 100 100 100 100 100 100 100 100 100 100 100 100 100 100 100 100 100 100
92 100 100 100 100 100 100 100 97 100 96 75 57 8 69 61 5 82 100 100 100 100 100 100 100 100 100 100 100 100 100 100 100 100 100 100 100 100 100 100 100 100 100 100
100 100 100 100 100 100 100 94 81 100 100 97 100 91 15 98 82 100 100 100 100 100 100 100 100 100 100 100 100 100 100 100 100 100 100 100 100 100 100 100 100 100 100 100
100 100 100 100 100 100 100 100 100 100 100 100 79 60 89 100 100 100 100 100 100 100 100 100 100 100 100 100 100 100 100 100 100 100 100 100 100 100 100 100 100 100 100 100
68 100 100 100 100 100 100 100 100 100 100 96 99 92 48 96 100 100 100 100 100 100 100 100 100 100 100 100 100 100 100 100 100 100 100 100 100 100 100 100 100 100 100 100
100 100 10 65 100 100 100 100 100 100 27 10 8 100 100 100 100 100 100 100 100 100 100 100 100 100 100 100 100 100 100 100 100 100 100 100 100 100 100 100 100 100 100 100
100 55 90 100 100 100 100 100 99 100 100 100 93 100 100 100 100 100 100 100 100 100 100 100 100 100 100 100 100 100 100 100 100 100 100 100 100 100 100 100 100 100 100 100
100 100 100 100 100 100 100 58 63 90 83 100 100 97 100 100 100 100 100 100 100 100 100 100 100 100 100 100 100 100 100 100 100 100 100 100 100 100 100 100 100 100 100 100
98 100 100 100 100 100 100 99 74 83 87 99 100 100 100 100 100 100 100 100 100 100 100 100 100 100 100 100 100 100 100 100 100 100 100 100 100 100 100 100 100 100 100 100
100 99 93 80 98 100 100 100 100 100 100 100 100 100 100 100 100 100 100 100 100 100 100 100 100 100 100 100 100 100 100 100 100 100 100 100 100 100 100 100 100 100 100 100
100 100 100 99 98 100 100 100 100 100 100 100 100 100 100 100 100 100 100 100 100 100 100 100 100 100 100 100 100 100 100 100 100 100 100 100 100 100 100 100 100 100 100 100
100 100 100 100 100 100 100 100 100 100 100 100 100 100 100 100 100 100 100 100 100 100 100 100 100 100 100 100 100 100 100 100 100 100 100 100 100 100 100 100 100 100 100 100
100 100 100 100 100 100 100 100 100 100 100 100 100 100 100 100 100 100 100 100 100 100 100 100 100 100 100 100 100 100 100 100 100 100 100 100 100 100 100 100 100 100 100 100
100 100 100 100 100 100 100 100 100 100 100 100 100 100 100 100 100 100 100 100 100 100 100 100 100 100 100 100 100 100 99 86 96 100 100 100 100 100 100 100 100 100 100 100
100 100 100 100 100 100 100 100 100 100 100 100 100 100 100 100 100 100 100 100 100 100 100 100 100 99 100 95 96 94 98 100 99 100 100 100 100 100 100 100 100 100 100 100
100 100 100 100 100 100 100 100 100 100 100 100 100 100 100 100 100 100 100 100 100 100 100 100 100 100 100 100 100 100 100 100 100 100 100 100 100 100 100 100 100 100 100 100
100 100 100 100 100 100 100 100 100 100 100 100 100 100 100 100 100 100 100 100 100 99 100 100 100 100 100 100 100 100 94 100 100 100 100 95 100 100 100 100 100 100 100 93
100 100 100 100 100 100 100 100 100 100 100 100 100 100 100 100 100 100 100 100 100 100 100 100 100 100 100 100 100 100 100 100 100 100 100 100 100 100 100 100 100 100 100 100
100 100 100 100 100 100 100 100 100 100 100 100 100 100 100 100 100 100 100 100 100 100 100 100 100 100 100 100 100 100 100 100 100 97 96 100 100 100 100 100 100 100 100 100
100 100 100 100 100 100 100 100 100 100 100 100 100 100 100 100 100 100 100 100 100 100 100 100 100 100 100 100 100 100 100 100 100 100 100 100 100 100 100 100 100 100 100 100

GFSNGP_prec_cloud_087.txt.gz
Cloud_Cover
100 100 100 100 100 100 100 100 92 100 99 100 100 100 95 100 100 100 93 88 50 5 2 88 65 89 100 100 100 65 5 2 0 0 0 7 25 96 100 100 100 63 82 10
100 100 100 100 100 100 100 100 100 100 100 100 100 100 49 100 86 48 99 37 78 77 87 5 20 100 100 100 100 100 85 5 5 0 0 0 0 0 0 21 43 11 21 6
100 100 100 83 100 100 99 86 100 100 100 100 100 100 100 100 100 66 82 45 69 95 79 79 11 40 100 100 100 100 100 100 17 5 5 0 0 0 3 21 14 0 5 14
100 93 70 100 30 5 33 100 100 100 100 100 100 100 100 100 100 99 20 22 32 94 68 100 100 57 10 100 100 100 100 100 100 100 54 4 1 0 0 0 2 38 62 59
100 98 21 22 87 14 5 26 84 42 91 100 100 91 100 100 100 100 100 100 100 62 41 100 93 100 93 60 100 100 100 100 100 100 100 100 42 6 20 41 68 100 100 100
100 100 100 44 23 99 92 98 97 88 59 100 25 97 94 70 100 100 100 99 97 98 100 98 100 100 100 99 100 86 100 100 100 100 100 100 100 100 100 81 99 100 100 100
97 100 74 100 75 100 100 89 49 100 97 74 98 36 54 16 9 58 85 27 5 5 40 5 21 100 97 100 99 99 71 100 100 100 100 100 100 100 100 100 100 100 100 100
98 100 96 32 54 100 100 100 100 100 100 87 49 100 26 5 5 5 5 5 5 3 34 22 8 86 100 100 74 87 100 100 100 100 100 100 100 100 100 100 100 100 100 100
95 76 97 30 89 100 100 100 100 100 100 100 100 100 90 24 5 5 25 50 75 68 98 97 63 43 97 100 100 100 100 100 100 100 100 100 100 100 100 100 100 100 100 100
100 100 100 100 82 100 100 100 100 100 98 100 100 100 99 16 34 88 100 100 100 100 100 100 100 100 100 100 100 100 100 100 100 100 100 100 100 100 100 100 100 100 100 100
100 100 100 100 100 100 100 100 100 100 100 100 100 99 68 70 74 100 100 100 100 100 100 100 100 100 100 100 100 100 100 100 100 100 100 100 100 100 100 100 100 100 100 100
100 100 100 99 100 100 100 100 100 100 100 100 64 46 79 100 100 100 100 100 100 100 100 100 100 100 100 100 100 100 100 100 100 100 100 100 100 100 100 100 100 100 100 100
77 56 100 100 100 100 100 100 100 100 100 93 56 100 99 100 100 100 100 100 100 100 100 100 100 100 100 100 100 100 100 100 100 100 100 100 100 100 100 100 100 100 100 100
99 22 97 100 100 100 100 100 100 100 100 100 100 100 100 100 100 100 100 100 100 100 100 100 100 100 100 100 100 100 100 100 100 100 100 100 100 100 100 100 100 100 100 100
93 37 96 79 100 100 100 100 100 100 100 100 100 100 100 100 100 100 100 100 100 100 100 100 100 100 100 100 100 100 100 100 100 100 100 100 100 100 100 100 100 100 100 100
85 100 99 98 98 44 53 46 75 100 100 89 100 100 100 100 100 100 100 100 100 100 100 100 100 100 100 100 100 100 100 100 100 100 100 100 100 100 100 100 100 100 100 100
73 68 67 46 98 100 79 75 97 100 100 100 100 100 100 100 100 100 100 100 100 100 100 100 100 100 100 100 100 100 100 100 100 100 100 100 100 100 100 100 100 100 100 100
100 100 100 100 100 100 100 93 99 98 98 100 100 100 100 100 100 100 100 100 100 100 100 100 100 100 100 100 100 100 100 100 100 100 100 100 100 100 100 100 100 100 100 100
100 100 100 100 100 100 100 99 100 100 100 100 100 100 100 100 100 100 100 100 100 100 100 100 100 100 100 100 100 100 100 100 100 100 100 100 100 100 100 100 100 100 100 100
100 100 100 100 100 100 100 100 100 100 100 100 99 99 100 100 100 100 100 100 100 100 100 100 100 100 100 100 100 100 100 100 100 100 100 100 100 100 100 100 100 100 100 100
100 100 100 100 100 100 100 100 100 100 100 100 100 100 100 100 100 100 100 100 100 100 100 100 100 100 100 100 100 100 100 99 100 100 100 100 100 100 100 100 100 100 100 100
100 100 100 100 100 100 100 100 100 100 100 100 100 100 100 100 100 100 100 100 100 100 100 100 100 100 100 90 99 100 100 99 100 100 100 100 100 100 100 100 100 100 100 100
100 100 100 100 100 100 100 100 100 100 100 100 100 100 100 100 100 100 100 100 100 100 100 99 100 100 100 100 100 100 100 100 100 100 100 100 100 100 100 100 100 100 100 100
100 100 100 100 100 100 100 100 100 100 100 100 100 100 100 100 100 100 100 100 100 100 100 100 100 100 100 100 100 100 100 100 100 100 100 100 100 100 100 100 100 100 100 97
100 100 100 100 100 100 100 100 100 100 100 100 100 100 100 100 100 100 100 100 100 100 100 100 100 100 100 100 100 100 100 100 100 100 100 100 100 100 100 100 100 100 100 100
100 100 100 100 100 100 100 100 100 100 100 100 100 100 100 100 100 100 100 100 100 100 100 100 100 100 100 100 100 100 100 100 100 100 100 100 100 100 100 100 100 100 100 100
100 100 100 100 100 100 100 100 100 100 100 100 100 100 100 100 100 100 100 100 100 100 100 100 100 99 100 100 100 100 100 100 69 93 100 100 100 100 100 100 100 100 100 100

GFSNGP_prec_cloud_090.txt.gz
Cloud_Cover
100 100 100 100 100 100 100 100 100 100 100 100 100 100 100 100 100 100 100 69 5 5 21 16 98 100 0 3 68 93 100 100 98 5 0 0 56 16 36 92 82 37 22 19
100 100 100 100 100 100 100 100 97 97 98 100 100 100 100 100 100 100 100 99 100 22 6 6 17 19 4 3 40 75 100 100 100 100 21 2 0 18 4 95 100 100 38 5
100 100 98 100 100 100 100 100 100 100 100 100 100 100 100 100 100 100 99 45 98 100 5 65 77 18 5 5 15 61 92 98 100 100 100 100 100 20 3 5 84 100 100 30
100 100 96 100 100 100 100 100 100 100 100 100 100 100 100 100 100 100 100 93 100 100 79 51 53 84 96 61 14 6 90 73 83 100 100 100 100 100 100 59 2 5 46 75
100 100 100 100 100 100 100 100 100 100 100 100 100 100 100 100 100 100 100 100 100 100 85 57 100 100 96 95 74 10 30 26 26 16 100 100 100 100 100 100 100 95 42 64
100 100 100 100 100 100 100 95 100 100 100 100 96 74 100 100 100 100 100 100 100 100 100 100 100 100 100 100 100 80 100 32 5 72 100 100 100 100 100 100 100 100 100 100
91 100 100 100 100 100 100 62 81 96 100 100 99 100 100 77 100 58 8 100 100 97 95 99 100 100 100 98 62 86 100 90 54 94 99 100 100 100 100 100 100 100 100 100
77 100 100 100 100 100 93 54 99 100 95 100 100 100 69 93 86 70 100 99 23 61 96 94 32 12 90 98 96 83 79 100 100 100 100 92 100 100 100 100 100 100 100 100
90 32 9 7 100 73 37 100 100 100 94 100 100 98 24 90 100 100 99 100 100 100 100 100 100 100 100 100 100 100 99 100 100 100 100 100 100 100 100 100 100 100 100 100
100 99 74 100 100 100 64 96 100 100 100 100 100 100 100 100 100 100 100 100 100 100 100 100 100 100 100 100 100 100 100 100 100 100 100 100 100 100 100 100 100 100 100 100
100 100 99 94 72 100 91 100 100 100 100 100 100 100 100 100 100 100 100 100 100 100 100 100 100 100 100 100 100 100 100 100 100 100 100 100 100 100 100 100 100 100 100 100
100 100 100 100 100 99 100 100 100 100 100 100 100 100 100 100 100 100 100 100 100 100 100 100 100 100 100 100 100 100 100 100 100 100 100 100 100 100 100 100 100 100 100 100
100 94 95 100 100 100 100 100 100 100 100 100 100 100 100 100 100 100 100 100 100 100 100 100 100 100 100 100 100 100 100 100 100 100 100 100 100 100 100 100 100 100 100 100
100 15 99 100 100 100 100 100 100 100 100 100 100 100 100 100 100 100 100 100 100 100 100 100 100 100 100 100 100 100 100 100 100 100 100 100 100 100 100 100 100 100 100 100
100 19 99 86 100 100 62 100 100 100 100 100 100 100 100 100 100 100 100 100 100 100 100 100 100 100 100 100 100 100 100 100 100 100 100 100 100 100 100 100 100 100 100 100
100 90 67 66 97 100 99 100 100 100 100 100 100 100 100 100 100 100 100 100 100 100 100 100 100 100 100 100 100 100 100 100 100 100 100 100 100 100 100 100 100 100 100 100
100 92 74 72 98 100 100 100 100 100 100 100 100 100 100 100 100 100 100 100 100 100 100 100 100 100 100 100 100 100 100 100 100 100 100 100 100 100 100 100 100 100 100 100
98 100 100 100 100 100 100 91 96 99 100 100 100 100 100 100 100 100 100 100 100 100 100 100 100 100 100 100 100 100 100 100 100 100 100 100 100 100 100 100 100 100 100 100
100 100 100 100 100 100 100 100 100 100 100 95 98 100 100 100 100 100 100 100 100 100 100 100 100 100 100 100 100 100 100 100 100 100 100 100 100 100 100 100 100 100 100 100
100 100 100 100 99 100 100 100 99 100 100 100 100 100 100 100 100 100 100 100 100 100 100 100 100 100 100 100 100 100 100 100 100 98 100 100 100 100 100 84 97 99 91 65
100 100 100 100 100 93 99 73 83 93 99 100 100 100 100 100 100 100 100 100 100 100 100 100 100 100 100 100 100 100 100 100 98 100 100 100 100 100 87 98 75 93 99 98
100 99 100 83 77 96 98 99 99 100 100 100 100 100 100 100 100 100 100 100 100 100 100 100 100 100 100 100 100 100 95 95 96 98 99 100 98 91 84 82 100 100 99 99
98 100 98 97 99 100 99 100 100 100 100 97 100 100 100 100 100 100 100 100 100 100 100 100 100 100 100 100 100 100 95 80 81 64 66 69 86 77 64 98 100 87 56 61
96 97 100 100 100 100 94 100 100 100 100 100 100 100 100 100 100 100 100 100 100 100 100 100 100 100 100 100 100 100 100 100 99 99 96 97 99 99 83 31 90 100 98 97
99 87 90 100 100 100 100 100 100 100 100 100 100 100 100 99 100 100 100 100 100 100 100 100 100 100 100 100 100 100 100 100 100 100 100 98 100 86 90 91 59 14 98 100
100 100 100 100 100 100 100 100 100 100 100 100 100 99 100 100 100 100 100 100 100 100 100 100 100 100 100 100 99 93 77 99 81 52 100 100 100 100 94 95 100 100 100 100
100 100 100 100 100 100 100 99 100 100 96 94 100 100 100 100 100 100 100 100 100 100 97 100 95 87 85 99 98 100 100 95 84 68 100 100 100 100 98 96 100 92 100 100

GFSNGP_prec_cloud_093.txt.gz
Cloud_Cover
100 100 100 100 100 100 100 100 100 100 100 100 100 100 100 100 100 100 90 100 88 98 100 100 79 99 17 5 98 95 3 96 100 100 100 100 100 44 20 17 0 5 4 34
100 100 100 100 100 100 100 100 100 100 100 100 100 100 100 100 100 100 100 100 87 28 100 100 98 55 22 5 5 56 100 4 91 100 100 100 100 100 100 45 10 18 0 0
100 100 100 100 100 100 100 100 100 100 100 100 100 100 100 100 100 100 99 100 92 100 100 100 100 100 72 73 5 5 45 36 6 79 41 99 100 100 100 99 81 36 100 95
100 100 100 100 100 100 100 100 100 100 100 100 100 100 100 100 100 100 100 100 100 100 100 100 100 86 100 100 94 7 43 5 5 5 22 92 97 100 100 100 100 100 100 100
100 100 100 100 100 100 100 100 91 100 100 100 100 100 100 100 100 100 100 100 100 100 100 100 100 100 96 52 100 93 64 88 94 100 10 25 98 100 100 100 100 100 100 100
100 100 100 100 100 100 100 100 100 100 100 100 100 100 100 100 100 100 100 100 100 100 81 58 77 95 91 100 63 100 100 98 78 100 98 100 100 100 100 100 99 100 100 100
100 100 100 100 100 100 100 100 100 100 100 100 100 100 100 100 100 100 100 100 100 100 100 100 58 79 94 97 100 94 99 100 99 100 99 100 100 100 100 100 100 100 100 100
100 100 100 100 100 100 100 100 87 100 100 100 100 100 100 100 100 100 100 100 100 100 100 100 100 100 100 100 100 100 100 100 100 100 100 100 100 100 100 100 100 100 100 100
69 28 100 100 100 100 100 100 49 14 89 100 100 100 100 100 100 100 100 100 100 100 100 100 100 100 100 100 100 100 100 100 100 100 100 100 100 100 100 100 100 100 100 100
98 98 98 100 85 100 100 100 43 16 86 88 100 100 100 100 100 100 100 100 100 100 100 100 100 100 100 100 100 100 100 100 100 100 100 100 100 100 100 100 100 100 100 100
100 96 100 84 100 99 56 94 71 30 97 100 100 93 100 100 100 100 100 100 100 100 100 100 100 100 100 100 100 100 100 100 100 100 100 100 100 100 100 100 100 100 100 100
100 100 100 99 100 100 100 49 96 67 100 100 100 100 100 100 100 100 100 100 100 100 100 100 100 100 100 100 100 100 100 100 100 100 100 100 100 100 100 100 100 100 100 100
100 100 100 100 100 95 71 10 100 98 100 100 100 100 100 100 100 100 100 100 100 100 100 100 100 100 100 100 100 100 100 100 100 100 100 100 100 100 100 100 100 100 100 100
100 100 100 100 100 100 100 100 100 100 100 100 100 100 100 100 100 100 100 100 100 100 100 100 100 100 100 100 100 100 100 100 100 100 100 100 100 100 100 100 100 100 100 100
100 100 100 100 100 100 100 92 100 100 100 100 100 100 100 100 100 100 100 100 100 100 100 100 100 100 100 100 100 100 100 100 100 100 100 100 100 100 100 100 100 100 100 100
99 100 100 100 100 94 97 100 100 100 100 100 100 100 100 100 100 100 100 100 100 100 100 100 100 100 100 100 100 100 100 100 100 100 100 100 100 100 100 100 100 100 100 100
100 100 100 100 100 100 94 84 98 100 100 100 100 100 100 100 100 100 100 100 100 100 100 100 100 100 100 100 100 100 97 100 100 100 100 100 100 100 100 100 100 100 100 100
100 100 100 100 100 100 99 92 75 86 99 100 100 100 100 100 100 100 100 100 100 100 100 100 100 100 100 100 100 100 100 100 100 100 100 100 100 100 100 100 100 100 100 100
100 100 100 100 100 99 100 100 100 100 99 90 96 100 100 100 100 100 100 92 100 100 100 100 100 100 100 100 100 100 100 100 100 100 100 100 100 100 100 100 100 100 100 100
100 100 100 100 100 100 100 100 86 95 100 97 96 96 100 100 100 100 100 100 100 100 100 100 100 100 100 100 100 100 100 100 100 100 100 100 100 100 100 100 100 100 100 100
98 99 99 100 100 96 95 84 80 89 99 93 93 98 100 100 100 99 99 99 100 100 100 100 100 100 100 100 100 100 100 100 100 100 100 100 100 100 100 95 42 99 97 99
84 74 89 80 86 99 100 96 87 78 79 82 99 98 98 100 99 99 100 100 100 100 100 100 100 100 100 100 100 100 100 100 100 100 100 100 96 100 100 97 100 100 100 100
92 74 60 65 100 98 89 92 92 92 100 100 98 93 100 100 100 100 100 100 100 100 100 100 100 100 98 100 100 100 100 100 100 99 100 100 100 99 100 99 76 61 87 55
95 98 93 98 73 71 95 100 99 95 90 100 100 100 100 100 100 100 95 87 100 100 100 100 100 100 100 100 100 100 100 100 100 100 100 100 100 100 97 80 71 52 51 100
79 84 99 98 86 100 87 99 100 94 100 100 99 91 98 100 100 100 100 100 94 99 100 100 100 100 100 100 100 100 100 100 97 70 68 81 86 64 53 23 8 44 100 93
99 100 98 99 96 98 98 100 100 99 99 98 100 98 95 99 100 100 100 100 100 100 100 100 100 100 100 100 100 100 100 100 100 100 88 88 100 89 26 43 99 100 98 58
100 100 100 100 100 100 100 100 100 100 100 100 100 100 100 100 100 100 100 100 100 100 100 100 100 100 100 100 100 100 100 100 97 70 70 60 68 78 41 28 15 5 23 59

GFSNGP_prec_cloud_096.txt.gz
Cloud_Cover
100 6 87 100 100 99 96 91 100 100 100 100 100 100 100 100 100 100 100 93 98 99 98 100 100 100 100 100 100 47 26 6 34 100 100 100 100 100 100 100 30 1 1 16
100 100 100 100 100 100 100 100 100 100 100 100 100 100 100 100 100 100 100 100 100 94 100 100 100 100 99 44 74 98 30 5 5 91 100 100 100 100 100 95 96 100 36 5
100 82 100 100 100 100 93 100 100 100 100 100 100 100 100 100 100 100 100 46 97 98 100 100 99 100 100 100 100 100 100 100 12 5 10 88 100 100 100 100 100 100 100 97
63 87 100 100 100 100 100 97 100 100 100 100 100 100 100 100 100 100 100 100 76 62 99 100 78 75 100 100 100 100 100 100 100 56 31 42 47 94 100 100 100 100 100 99
100 99 100 100 100 100 100 100 100 100 100 100 100 100 99 98 100 100 100 100 100 100 65 97 92 99 100 100 100 96 100 100 100 100 100 90 100 100 100 100 100 100 100 48
100 100 100 100 100 100 100 100 100 100 100 100 100 100 100 100 100 100 100 100 100 100 78 94 100 100 100 100 100 98 87 97 100 100 100 100 100 100 100 100 100 100 100 100
100 100 100 100 100 100 100 100 100 100 100 100 100 100 100 100 100 100 100 100 100 100 100 99 83 80 100 100 100 100 100 100 100 100 100 100 100 100 100 100 100 100 100 100
100 100 100 100 100 100 100 100 100 100 100 100 100 100 100 100 100 100 100 100 100 100 100 100 100 100 100 100 100 100 100 100 100 100 100 100 100 100 100 100 100 100 100 100
100 100 100 100 100 100 100 100 100 100 100 100 100 100 100 100 100 100 100 100 100 100 100 100 100 100 100 100 100 100 100 100 100 100 100 100 100 100 100 100 100 100 100 100
100 100 100 100 100 100 100 88 82 93 100 100 100 100 100 100 100 100 100 100 100 100 100 100 100 100 100 100 100 100 100 100 100 100 100 100 100 100 100 100 100 100 100 100
100 100 100 100 100 99 100 100 73 68 26 66 100 100 100 100 100 100 100 100 100 100 100 100 100 100 100 100 100 100 100 100 100 100 100 100 100 100 100 100 100 100 100 100
100 100 100 100 96 78 99 84 100 100 80 32 60 100 100 100 100 100 100 100 100 100 100 100 100 100 100 28 10 52 68 100 100 100 100 99 96 100 100 100 100 100 100 100
100 100 100 100 100 92 100 100 12 28 86 95 85 100 100 100 100 100 100 100 100 100 100 100 100 100 100 100 100 100 100 100 86 100 100 100 100 98 100 100 100 100 100 100
100 100 100 100 98 66 100 100 94 36 11 59 86 86 100 100 100 100 100 100 100 100 100 100 100 100 100 100 100 91 97 98 96 94 100 100 100 100 100 100 100 100 100 100
100 86 100 100 100 79 28 96 73 77 89 83 86 98 100 99 100 100 100 100 100 100 100 100 100 100 100 100 100 92 100 100 100 99 100 100 94 97 100 100 100 100 100 100
97 99 100 100 100 100 100 100 100 100 100 100 100 100 100 100 100 100 100 100 100 100 100 100 100 100 100 100 100 100 100 100 91 98 99 100 97 99 100 100 100 100 100 100
100 100 100 100 93 97 100 100 100 100 100 100 100 100 100 100 100 100 100 100 100 100 100 100 100 100 100 100 100 100 100 100 100 100 100 99 100 100 100 100 100 100 100 100
74 91 100 100 100 100 100 100 100 100 100 100 100 100 100 100 100 100 100 100 100 100 100 100 100 100 100 100 100 100 100 99 100 100 100 100 100 100 100 100 100 100 100 100
81 92 97 100 100 100 100 100 100 100 100 74 74 90 99 100 100 100 100 96 89 99 100 100 100 100 100 100 100 100 100 100 100 100 100 99 100 100 100 100 100 100 100 100
100 100 100 100 100 100 100 100 100 100 100 100 93 98 99 99 99 100 100 100 100 100 100 100 100 100 100 100 100 100 100 100 100 100 100 100 100 100 100 100 100 100 100 100
100 100 100 100 100 99 98 97 68 88 98 93 89 86 92 99 97 98 98 98 100 100 100 100 100 100 100 100 100 100 100 100 100 100 100 100 100 91 100 100 100 100 100 100
83 80 90 90 92 100 100 100 88 83 90 96 100 100 100 100 100 99 100 100 100 100 100 100 100 100 100 100 100 100 97 98 100 100 100 100 99 100 100 100 100 100 100 98
71 56 39 51 86 99 86 77 83 84 98 100 96 86 94 100 96 97 94 99 100 100 100 100 87 85 92 100 100 100 100 100 100 100 100 100 100 100 100 100 100 100 87 100
56 69 76 66 50 64 65 93 91 97 100 99 92 75 84 95 99 100 100 99 99 89 93 100 100 100 99 82 83 100 100 100 100 100 100 100 100 100 100 100 100 100 100 100
90 93 98 98 93 95 82 82 83 90 100 100 88 98 92 94 78 82 93 97 100 100 100 97 99 100 96 100 100 100 100 100 100 100 100 100 100 100 100 100 100 100 100 94
100 99 98 100 100 100 100 100 100 100 100 100 100 100 100 100 100 100 100 99 100 100 100 100 98 100 100 100 100 100 100 100 100 100 100 100 100 100 100 100 100 100 100 85
100 100 100 100 100 100 100 100 100 100 100 100 100 100 100 100 100 100 100 100 100 100 100 100 100 100 100 100 100 100 100 100 100 100 100 98 93 69 76 64 66 71 94 96

GFSNGP_prec_cloud_099.txt.gz
Cloud_Cover
100 68 95 100 98 100 100 100 62 97 100 100 100 100 100 100 100 100 100 100 100 100 100 100 62 100 100 99 97 100 100 100 100 15 16 5 2 21 64 100 100 94 39 5
100 100 100 95 25 43 100 100 100 100 100 100 100 100 100 100 100 100 100 100 100 100 100 100 79 100 100 100 100 100 100 100 100 100 49 5 10 67 53 100 100 100 100 100
100 97 93 58 29 99 100 77 100 100 100 100 100 100 100 100 100 100 100 100 100 100 100 100 100 100 100 100 100 100 100 100 100 100 100 78 100 100 100 100 100 100 100 89
100 45 95 100 100 83 100 100 100 100 100 100 100 100 100 100 100 100 100 100 100 100 100 100 100 77 95 100 100 100 100 100 100 100 100 100 100 100 100 100 100 100 100 98
100 81 70 100 76 92 100 100 100 100 100 100 100 100 100 100 100 100 100 100 100 100 100 100 100 100 100 100 100 100 100 100 100 100 100 100 100 100 100 100 100 100 100 100
100 65 100 100 100 91 100 100 100 100 100 100 98 100 100 100 100 100 100 100 100 100 100 100 100 100 100 100 100 100 100 100 100 100 100 100 100 100 100 100 100 100 100 100
100 48 33 89 100 100 100 100 100 100 100 100 100 100 100 100 100 100 100 100 100 100 100 100 100 100 100 100 100 100 100 100 100 100 100 100 100 100 100 100 100 100 100 100
65 90 38 99 100 100 100 100 100 100 100 100 100 100 100 100 100 100 100 100 100 100 100 100 100 100 100 100 100 100 100 100 100 100 100 100 100 100 100 100 100 100 100 100
57 58 100 100 100 100 100 100 100 100 100 100 100 100 100 100 100 100 100 100 100 100 100 100 100 100 100 100 100 100 100 100 100 100 100 100 100 100 100 100 100 100 100 100
100 100 100 100 100 100 100 100 100 100 100 100 100 100 100 100 100 100 100 100 100 100 100 100 100 100 100 100 100 100 100 100 100 100 100 100 100 100 100 100 100 100 100 100
100 100 100 100 100 100 100 100 100 100 100 100 100 100 100 100 100 100 100 100 100 100 100 100 100 100 100 100 100 100 100 100 100 100 100 100 100 100 100 100 100 100 100 100
100 100 100 100 100 100 100 100 100 100 100 100 100 100 100 100 100 100 100 100 100 100 100 100 100 100 100 100 100 100 99 100 100 100 100 100 100 100 100 100 100 100 100 100
100 100 100 100 100 100 100 77 26 100 10 100 100 100 100 100 100 100 100 100 100 100 100 100 100 100 100 100 97 100 89 97 97 100 100 100 100 100 100 100 99 100 100 100
100 100 100 100 100 100 75 65 36 55 20 7 39 99 99 100 100 100 100 100 100 100 100 100 100 100 100 100 100 100 93 95 98 100 100 100 100 100 100 100 100 100 100 100
100 90 87 100 100 100 100 100 70 47 62 41 55 98 97 99 100 100 100 100 100 100 100 100 100 100 100 100 100 100 100 100 100 100 100 100 99 100 100 92 92 100 100 100
100 100 100 100 100 100 100 100 83 100 98 98 98 99 100 100 100 100 100 100 100 100 100 100 100 100 100 100 100 100 100 98 100 99 100 100 100 100 100 100 93 100 100 100
100 100 100 100 100 100 98 94 100 100 100 100 100 100 97 100 100 100 100 100 100 100 100 100 100 100 100 100 100 100 100 100 100 100 100 100 94 100 100 93 100 100 100 98
86 100 100 100 100 100 100 100 100 100 100 100 96 91 100 98 100 100 100 100 100 100 100 100 100 100 100 100 100 100 100 100 100 98 100 100 100 100 97 99 100 100 100 100
100 100 100 100 100 100 100 100 100 100 96 92 91 94 96 97 96 100 100 100 100 100 100 100 100 100 100 100 100 100 100 100 100 100 100 97 100 100 100 100 99 92 100 98
100 100 100 100 100 100 100 100 100 100 100 100 100 100 100 100 100 100 100 100 100 100 100 96 94 100 100 96 99 100 100 100 89 97 96 93 91 96 94 98 99 90 95 100
100 100 100 100 100 100 100 99 99 100 100 99 99 99 95 99 100 100 100 97 100 97 96 92 83 97 93 85 86 84 92 95 99 98 100 100 91 78 99 100 100 99 100 99
83 86 90 63 74 96 80 79 78 82 87 87 88 84 78 79 86 93 100 100 100 83 91 100 100 77 80 83 74 77 90 100 99 99 96 99 100 100 99 96 94 94 100 100
86 60 57 50 71 98 76 74 68 60 61 61 69 74 84 99 92 89 92 96 99 76 75 96 72 72 77 78 81 86 86 84 83 95 100 100 100 100 97 100 100 100 100 100
96 61 98 74 52 50 93 100 95 78 63 69 82 89 92 91 94 98 99 79 86 89 86 91 72 82 84 75 80 84 76 62 68 87 99 100 100 100 100 100 100 100 100 100
88 77 78 81 85 96 78 66 65 69 71 77 93 99 92 77 81 84 95 79 80 82 67 93 85 68 79 84 87 80 81 76 74 78 78 92 99 100 100 100 100 100 100 100
100 100 100 100 86 76 74 70 73 78 90 99 96 99 100 100 100 100 90 86 95 91 86 72 67 70 76 85 95 100 99 100 93 100 100 100 100 100 100 100 100 100 100 98
100 100 100 100 100 100 100 100 100 100 100 100 100 100 100 100 100 100 100 96 97 99 100 100 100 100 98 100 100 100 100 100 100 100 100 100 100 92 91 71 68 82 100 100

GFSNGP_prec_cloud_105.txt.gz
Cloud_Cover
44 100 100 100 100 100 100 100 100 100 28 5 5 18 82 75 96 100 97 37 100 100 100 100 100 100 100 100 100 100 100 100 100 100 100 100 100 100 60 62 60 73 100 100
57 5 43 97 76 99 97 59 68 5 5 5 38 99 96 100 100 100 100 74 100 100 100 100 100 100 100 100 100 100 100 100 100 100 100 100 100 100 96 96 99 61 100 100
100 83 39 10 10 44 19 4 4 55 48 78 80 100 100 100 100 100 100 100 100 100 100 100 100 100 100 100 100 100 100 100 100 100 100 100 100 100 100 99 92 38 96 100
9 26 5 29 12 4 16 29 100 100 98 86 100 100 100 100 100 100 100 100 100 100 100 100 100 100 100 100 100 100 100 100 100 100 100 100 100 100 100 100 100 100 100 100
70 10 9 6 100 69 100 89 99 100 100 100 100 100 100 100 100 100 100 100 100 100 100 100 100 100 100 100 100 100 100 100 100 100 100 100 100 100 100 100 100 100 100 100
76 100 100 100 100 98 88 97 100 100 100 100 100 100 100 100 100 100 100 100 100 100 100 100 100 100 100 100 100 100 100 100 100 100 100 100 100 100 100 100 100 100 100 100
100 100 100 100 100 100 98 99 100 100 100 100 100 100 100 100 100 100 100 100 100 100 100 100 100 100 100 100 100 100 100 100 100 100 100 100 100 100 100 100 100 100 100 100
100 100 100 100 100 96 100 100 100 100 100 100 100 100 100 100 100 100 100 100 100 100 100 100 100 100 100 100 100 100 100 100 100 100 100 100 100 100 100 100 100 100 100 100
100 100 100 100 100 100 100 100 100 100 100 100 100 100 100 100 100 100 100 100 100 100 100 100 100 100 100 100 100 100 100 100 100 100 100 100 100 100 100 100 100 100 100 100
100 100 100 100 100 100 100 100 100 100 100 100 100 100 100 100 100 100 100 100 100 100 100 100 100 100 100 100 100 100 100 100 100 100 100 100 100 100 100 100 100 100 100 100
100 100 100 100 100 100 97 94 100 100 100 100 100 100 100 100 100 100 100 100 100 100 100 100 100 100 100 100 100 100 100 100 100 100 100 100 100 100 100 100 100 100 100 100
100 100 100 100 100 100 100 100 100 100 100 100 100 100 100 100 100 100 100 100 100 100 100 100 100 100 100 100 94 92 81 99 100 100 100 100 100 100 100 100 100 100 100 100
100 100 100 100 100 100 100 100 94 100 100 100 100 100 100 100 100 100 100 100 100 100 100 100 100 100 100 100 100 100 100 100 100 100 100 100 100 100 100 100 100 100 100 100
100 100 100 100 100 100 100 99 92 100 100 100 100 100 100 98 100 100 100 100 100 100 100 100 100 100 100 100 100 100 99 98 100 100 99 97 100 100 100 100 100 100 100 100
100 100 100 100 100 100 100 97 81 100 100 100 100 100 100 100 100 100 100 100 100 100 100 100 100 100 100 100 100 100 100 97 100 98 100 100 100 100 100 100 100 100 100 93
100 100 100 100 100 100 100 100 96 98 100 100 100 100 100 100 100 100 100 100 100 100 100 100 100 100 100 100 100 100 100 100 100 100 100 100 100 100 100 100 100 100 100 100
100 100 100 100 100 100 100 100 100 100 100 100 100 100 100 96 100 100 100 100 100 100 100 100 100 100 100 100 100 100 100 100 96 100 100 100 100 100 100 100 100 100 100 100
98 100 100 100 100 100 100 100 100 100 99 100 98 89 92 98 100 100 100 95 78 79 100 100 100 100 100 100 100 100 100 100 100 100 100 100 100 100 100 96 72 68 87 96
97 100 97 99 100 100 100 100 100 100 100 82 88 100 99 100 100 100 100 95 77 92 100 100 100 100 100 100 100 100 100 100 100 100 100 99 97 89 84 80 81 82 68 74
100 98 100 100 80 94 100 100 100 100 99 93 96 86 100 100 77 63 95 100 100 100 100 100 100 100 100 100 100 100 100 100 100 100 100 100 94 81 72 68 62 83 85 84
99 94 100 95 100 94 86 80 93 100 99 100 100 98 100 100 83 77 78 100 100 100 100 97 99 100 100 100 100 100 100 100 100 99 99 99 90 77 75 76 70 77 77 79
89 88 91 95 100 100 100 100 98 100 100 100 100 100 96 100 95 100 100 100 100 94 88 99 96 98 100 100 100 100 100 100 96 87 84 83 74 80 84 95 82 83 98 100
96 97 88 92 98 100 100 88 82 88 100 100 100 100 100 100 100 100 100 100 100 97 100 99 98 100 100 100 100 100 100 100 100 95 94 90 96 98 98 100 100 100 100 100
100 100 100 100 100 100 100 100 99 86 82 87 62 62 95 100 100 100 100 68 78 85 91 95 98 96 94 91 90 94 97 99 99 100 97 100 100 100 100 100 100 100 100 100
94 99 100 100 100 100 100 100 100 100 100 100 100 100 94 70 70 99 99 77 74 81 83 85 87 94 100 100 100 100 100 97 94 97 99 100 100 100 100 100 100 100 100 100
100 99 99 99 100 100 100 100 100 100 100 100 100 96 89 87 83 83 85 93 92 94 94 96 98 98 98 99 95 100 100 100 98 98 99 100 100 100 100 100 100 100 100 100
99 99 100 100 100 100 100 100 100 100 100 98 99 100 90 83 82 83 89 90 87 90 94 87 88 87 90 89 85 98 100 100 100 100 100 100 100 100 100 100 100 100 100 100

GFSNGP_prec_cloud_108.txt.gz
Cloud_Cover
100 79 93 100 100 100 100 100 100 100 100 50 81 38 98 100 100 100 100 99 99 100 62 73 100 100 100 100 100 100 100 100 100 100 100 100 100 100 100 100 100 88 100 100
100 100 100 100 100 100 100 100 100 99 100 64 100 100 100 100 100 87 99 100 99 72 62 100 100 100 100 100 100 100 100 100 100 100 100 100 100 100 100 100 100 100 90 100
100 100 100 81 98 100 100 100 90 67 82 100 100 100 100 100 96 100 100 100 100 100 100 100 100 100 100 100 100 100 100 100 100 100 100 100 100 100 100 100 100 100 100 100
100 100 100 94 97 67 100 90 22 10 79 100 98 100 100 100 100 100 100 100 100 100 100 100 100 100 100 100 100 100 100 100 100 100 100 100 100 100 100 100 100 100 100 100
96 100 61 7 95 45 89 100 96 98 100 100 100 100 100 100 100 100 100 100 100 100 100 100 100 100 100 100 100 100 100 100 100 100 100 100 100 100 100 100 100 100 100 100
100 100 95 81 100 89 67 100 100 100 99 100 98 100 100 100 98 82 100 100 100 100 100 100 100 100 100 100 100 100 100 100 100 100 100 100 100 100 100 100 100 100 100 100
98 100 49 27 100 100 100 100 100 100 98 100 100 100 100 100 97 100 100 100 100 100 100 100 100 100 100 100 100 100 100 100 100 100 100 100 100 100 100 100 100 100 100 100
100 100 94 86 100 100 100 100 100 100 100 100 100 100 100 100 100 100 100 100 100 100 100 100 100 100 100 100 100 100 100 100 100 100 100 100 100 100 100 100 100 100 100 100
100 100 100 100 100 100 100 100 100 100 100 100 100 100 100 100 100 100 100 100 100 100 100 100 100 100 100 100 100 100 100 100 100 100 100 100 100 100 100 100 100 100 100 100
100 100 100 100 100 100 100 100 100 100 100 100 100 100 100 100 100 100 100 100 100 100 100 100 100 100 100 100 100 100 100 100 100 100 100 100 100 100 100 100 100 100 100 100
100 100 100 100 100 100 100 100 100 100 76 60 100 99 100 100 100 100 100 100 100 100 100 100 100 100 100 100 100 100 100 100 100 100 100 100 100 100 100 100 100 100 100 100
100 100 100 100 100 100 100 100 100 100 83 100 100 100 100 100 100 100 100 100 100 100 100 100 100 100 100 100 100 100 100 100 100 100 100 100 100 100 100 100 100 100 100 100
100 100 100 100 100 100 100 100 99 95 79 78 100 100 100 100 98 100 100 100 100 100 100 100 100 100 100 100 100 100 100 100 100 100 100 100 100 100 100 100 100 100 100 100
100 100 100 100 100 100 100 100 100 100 86 99 100 100 100 100 96 100 100 100 100 100 100 100 100 100 100 100 100 100 100 100 100 100 100 100 100 100 100 100 100 100 100 100
100 100 100 100 100 100 100 100 100 97 99 86 100 100 100 100 100 100 100 100 99 100 100 100 100 100 100 100 100 100 100 100 100 100 100 100 100 100 100 100 100 100 100 100
100 100 100 100 100 100 100 98 100 100 100 100 100 100 100 100 100 100 100 100 100 100 100 100 100 100 100 100 100 100 100 100 100 100 100 100 100 100 100 100 100 100 100 100
100 100 100 100 100 100 100 100 100 100 100 99 100 100 100 100 100 100 100 100 100 100 100 100 100 100 100 100 100 100 100 100 100 100 100 100 100 100 100 100 100 100 100 99
100 98 100 100 100 100 100 100 100 100 100 100 100 100 100 100 100 100 100 100 100 100 100 100 100 100 100 100 100 100 100 100 100 100 100 100 100 100 100 99 96 92 86 82
99 99 97 100 100 100 100 99 100 100 100 100 100 100 100 100 100 100 100 100 100 100 100 100 100 100 100 100 100 100 100 100 100 100 100 100 100 98 100 91 84 82 71 82
96 100 100 100 100 100 100 100 100 100 100 100 100 100 100 100 100 100 100 100 100 100 100 100 100 100 100 100 94 100 100 100 100 100 100 99 93 93 85 73 88 97 100 100
100 100 100 100 100 100 100 100 100 100 100 100 100 100 100 100 100 100 100 100 100 100 100 80 87 99 99 94 98 100 100 100 100 100 97 91 92 90 98 99 99 99 100 100
100 100 100 100 100 100 100 100 100 100 100 100 100 100 100 100 100 100 100 100 100 83 99 99 71 86 72 75 98 100 98 100 100 100 100 100 99 99 100 100 100 100 100 100
100 100 100 100 100 100 100 100 100 100 100 100 100 100 100 100 100 100 100 96 100 81 89 100 97 100 100 100 100 100 100 100 100 100 100 100 100 100 100 100 100 100 100 100
100 100 100 100 100 100 100 100 100 100 100 100 100 100 100 100 100 100 98 65 76 72 92 88 97 100 100 100 100 100 100 100 100 100 100 100 100 100 100 100 100 100 100 100
100 100 100 100 100 100 100 100 100 100 100 100 100 100 100 100 100 100 100 82 80 100 93 76 91 100 100 100 100 100 100 100 100 100 100 100 100 100 100 100 100 100 100 100
100 100 100 100 100 100 100 100 100 100 100 100 100 100 100 100 100 99 100 95 99 87 100 100 99 100 100 100 100 100 100 99 100 98 100 100 100 100 100 100 100 100 100 100
100 94 100 100 100 100 100 98 100 100 100 100 100 100 100 100 92 100 79 100 100 100 100 100 100 84 100 100 100 100 100 100 79 100 100 100 100 100 100 100 100 100 100 100

GFSNGP_prec_cloud_111.txt.gz
Cloud_Cover
100 100 100 100 100 100 100 100 100 100 100 100 91 100 100 100 100 100 100 98 93 86 89 78 46 39 59 100 100 100 100 100 100 100 100 100 100 100 100 100 100 100 71 100
100 100 100 100 100 100 100 100 100 100 100 22 100 100 100 100 100 100 100 100 78 98 100 99 96 84 100 100 100 100 100 100 100 100 100 100 100 100 100 100 100 100 100 100
100 100 98 88 100 91 100 100 100 100 100 100 100 77 100 100 100 100 78 100 100 100 100 100 100 100 100 100 100 100 100 100 100 100 100 100 100 100 100 100 100 94 100 100
100 100 96 100 100 100 100 100 100 100 100 100 100 100 99 100 100 100 100 100 100 100 100 100 100 100 100 100 100 100 100 100 100 100 100 100 100 100 100 100 100 100 100 100
100 100 100 100 100 100 100 100 100 100 100 100 100 97 100 100 100 100 100 100 100 100 100 100 100 100 100 100 100 100 100 100 100 100 100 100 100 100 100 100 100 100 100 100
98 99 100 100 100 100 100 100 100 100 100 100 100 100 100 100 100 98 100 100 100 100 100 100 100 100 100 100 100 100 100 100 100 100 100 100 100 100 100 100 100 100 100 100
96 100 97 86 23 99 90 100 100 100 99 71 70 99 100 100 79 89 100 100 100 100 100 100 100 100 100 100 100 100 100 100 100 100 100 100 100 100 100 100 100 100 100 100
100 100 99 15 60 100 100 100 100 100 100 100 100 96 100 93 68 92 98 100 100 100 100 100 100 100 100 100 100 100 100 100 100 100 100 100 100 100 100 100 100 100 100 100
100 100 100 100 100 100 100 100 100 100 100 100 100 78 78 79 57 76 100 100 100 100 100 100 100 100 100 100 100 100 100 100 100 100 100 100 100 100 100 100 100 100 100 100
61 100 100 100 100 100 100 100 100 100 100 99 100 85 71 66 48 85 100 96 100 100 100 100 100 100 100 100 100 100 100 100 100 100 100 100 100 100 100 100 100 100 100 100
97 100 100 100 100 100 100 100 100 100 100 100 100 93 99 71 58 96 100 100 100 100 100 100 100 100 100 100 100 100 100 100 100 100 100 100 100 100 100 100 100 100 100 100
100 100 100 100 100 100 100 100 100 100 100 100 100 98 79 84 86 89 100 100 100 100 100 100 100 100 100 100 100 100 100 100 100 100 100 100 100 100 100 100 100 100 100 100
100 100 100 100 100 100 100 100 100 100 98 100 79 91 93 90 91 97 100 100 100 100 100 100 100 100 100 100 100 100 100 100 100 100 100 100 100 100 100 100 100 100 100 100
100 100 100 100 100 100 100 100 100 100 100 100 99 94 96 89 100 100 100 100 100 100 100 100 100 100 100 100 100 100 100 100 100 100 100 100 100 100 100 100 100 100 100 100
100 100 100 100 100 100 100 100 100 100 100 100 98 96 95 98 100 100 100 100 100 100 100 100 100 100 100 100 100 100 100 100 100 100 100 100 100 100 100 100 100 100 100 100
100 100 100 100 100 100 100 100 100 100 100 100 100 99 100 100 100 100 100 100 100 100 100 100 100 100 100 100 100 100 100 100 100 100 100 100 100 100 100 100 100 100 100 100
100 100 100 100 100 100 100 100 100 100 100 98 100 100 100 100 100 100 100 100 100 100 100 100 100 100 100 100 100 100 100 100 100 100 100 100 100 100 100 100 100 100 100 96
100 96 96 100 100 100 100 100 100 100 100 100 100 100 100 100 100 100 100 100 100 100 100 100 100 100 100 100 100 100 100 100 100 100 100 100 100 100 100 100 99 97 100 99
100 100 98 99 99 96 100 98 100 100 100 100 100 100 100 100 100 100 100 100 100 100 100 100 100 100 100 100 100 100 100 100 100 100 100 100 100 100 100 100 100 100 100 100
92 100 100 100 100 100 100 100 100 100 100 100 100 100 100 100 100 100 100 100 100 100 100 100 100 100 100 100 100 100 100 100 100 100 100 100 100 100 100 98 100 100 100 100
100 100 100 100 100 100 100 100 100 100 100 100 100 100 100 100 100 81 100 100 100 100 100 100 100 100 100 100 100 100 100 100 100 100 100 100 100 100 100 100 100 100 100 100
100 100 100 100 100 100 100 100 100 100 100 100 100 100 100 100 100 100 88 97 100 77 100 100 100 100 100 100 100 100 100 100 100 100 100 100 100 100 100 100 100 100 100 100
100 100 100 100 100 100 100 100 100 100 100 100 100 100 100 100 100 100 100 99 100 93 100 100 100 100 100 100 100 100 100 100 100 100 100 100 100 100 100 100 100 100 100 100
100 100 100 100 100 100 100 100 100 100 100 100 100 99 100 100 100 100 100 96 98 100 92 100 100 100 100 100 100 100 100 100 100 100 100 100 100 100 100 100 100 100 100 100
100 100 100 100 100 100 100 100 100 100 100 100 100 100 100 100 100 100 100 95 59 100 100 69 95 100 100 100 100 100 100 100 100 100 100 100 100 100 100 100 100 100 100 100
100 100 100 100 100 100 100 100 100 100 100 100 100 100 100 100 100 100 100 94 100 100 100 100 100 100 100 100 100 100 100 100 100 100 100 100 100 100 100 100 100 100 100 100
100 84 100 100 100 100 100 98 100 100 90 100 100 100 100 100 96 100 91 100 100 100 100 100 100 96 100 100 100 100 100 100 86 100 100 100 100 100 100 100 100 100 100 100

GFSNGP_prec_cloud_114.txt.gz
Cloud_Cover
100 100 97 95 36 100 100 100 100 100 100 100 100 100 100 100 88 100 100 100 100 100 100 100 100 100 100 100 88 59 100 100 100 100 100 100 100 100 100 94 100 100 100 100
100 100 100 100 100 100 100 100 100 100 100 100 100 100 100 98 42 99 100 100 100 100 100 100 100 100 100 100 100 74 100 100 100 100 96 100 100 100 100 100 100 100 100 100
100 100 100 100 100 100 100 100 100 100 100 100 100 100 100 94 88 97 53 85 100 100 100 100 100 100 100 100 100 96 100 100 100 100 100 100 100 100 100 100 100 100 100 100
100 100 100 100 100 94 94 78 100 100 100 100 100 100 100 100 100 100 98 100 100 100 100 100 100 100 100 100 100 97 100 100 100 100 100 100 100 100 100 100 100 100 100 100
100 100 100 100 100 100 100 100 100 100 100 100 100 100 100 100 100 100 100 100 100 100 100 100 100 100 100 100 100 100 100 100 100 100 100 100 100 100 100 100 100 100 100 100
100 100 100 100 100 100 100 100 100 100 100 100 100 100 100 100 100 100 100 100 100 100 100 100 100 100 100 77 100 100 100 100 100 100 100 100 100 100 100 100 100 100 100 100
78 89 100 99 100 100 100 100 100 100 100 100 100 100 100 100 100 100 100 100 100 100 100 100 100 99 100 100 100 100 100 100 100 100 100 100 100 100 100 100 100 100 100 100
68 78 100 100 99 100 100 100 100 100 100 100 100 100 100 100 100 100 100 100 100 100 100 100 100 100 100 100 100 100 100 100 100 100 100 100 100 100 100 100 100 100 100 100
100 100 100 100 100 100 100 100 98 100 100 100 100 100 100 100 100 98 100 100 91 98 100 100 100 100 100 100 100 100 100 100 100 100 100 100 100 100 100 100 100 100 100 100
100 100 100 100 100 100 100 100 100 100 100 100 100 100 100 100 98 95 98 100 76 98 100 100 100 100 100 100 100 100 100 100 100 100 100 100 100 100 100 100 100 100 100 100
100 98 98 100 100 100 100 100 100 100 100 100 100 100 100 100 100 100 79 86 98 100 100 100 100 100 100 100 100 100 100 100 100 100 100 100 100 100 100 100 100 100 100 100
100 100 100 100 100 100 100 100 100 100 100 100 100 100 100 100 100 100 97 100 100 100 100 100 100 100 100 100 100 100 100 100 100 100 100 100 100 100 100 100 100 100 100 100
100 100 100 100 100 100 100 100 100 100 95 100 100 100 100 100 100 100 100 100 100 100 100 100 100 100 100 100 100 100 100 100 100 100 100 100 100 100 100 100 100 100 100 100
100 100 100 100 100 100 100 100 100 100 100 100 100 100 100 100 99 100 100 100 100 100 100 100 100 100 100 100 100 100 100 100 100 100 100 100 100 100 100 100 100 100 100 100
100 100 100 100 100 100 100 100 100 100 100 100 100 100 100 100 100 100 100 100 100 100 100 100 100 100 100 100 100 100 100 100 100 100 100 100 100 100 100 100 100 100 100 100
100 100 100 100 100 100 100 100 100 100 100 100 100 100 100 100 100 100 100 100 100 100 100 100 100 100 100 100 100 100 100 100 100 100 100 100 100 100 100 100 100 100 100 100
100 100 100 100 100 100 100 100 100 100 100 100 100 100 100 100 100 100 100 100 100 100 100 100 100 100 100 100 100 100 100 100 100 100 100 100 100 100 100 100 100 100 100 100
98 78 98 98 100 100 100 100 100 100 100 100 100 99 92 95 100 100 100 100 100 100 100 100 100 100 100 100 100 100 100 100 100 100 100 100 100 100 100 100 99 100 100 100
100 98 97 99 99 100 100 100 100 100 100 100 100 90 83 98 97 71 100 100 100 100 100 100 100 100 100 100 100 100 100 100 100 100 100 100 100 100 100 100 100 100 100 100
100 98 100 100 100 98 100 100 100 100 98 100 98 100 100 75 97 100 57 100 100 100 100 100 100 100 100 100 100 100 100 100 100 100 100 87 75 100 100 100 100 100 100 100
100 100 100 100 100 100 100 100 99 100 96 53 98 86 72 75 98 100 90 98 99 100 100 100 100 100 100 100 100 100 100 100 100 100 100 100 100 100 100 100 100 100 100 98
99 100 100 99 99 100 98 100 100 100 99 92 92 100 100 98 83 100 81 98 100 100 84 97 90 97 70 82 85 87 91 96 100 100 100 100 100 100 100 100 100 100 100 100
100 99 100 100 95 87 100 82 90 90 88 100 93 81 100 98 75 86 100 84 92 61 100 72 97 83 89 100 100 99 86 85 93 100 100 100 100 100 100 100 100 100 100 100
100 100 100 94 100 100 100 100 98 73 97 95 66 100 100 100 100 100 99 96 100 56 7 8 6 68 96 100 96 100 100 99 95 69 77 94 90 91 89 55 34 53 31 6
87 69 30 84 100 93 70 27 100 98 94 100 100 100 100 87 87 54 87 76 46 100 71 42 74 73 94 95 98 54 26 59 96 100 100 100 100 100 98 91 90 80 96 100
100 100 80 35 71 100 100 100 100 80 97 100 99 95 96 100 100 100 91 73 83 100 100 55 83 100 99 95 77 83 93 86 87 97 98 86 95 94 88 100 100 100 100 65
40 64 91 98 100 100 79 44 100 100 100 100 100 100 100 82 48 75 97 100 100 100 98 99 22 28 92 100 88 100 87 58 70 89 99 100 99 79 99 100 100 99 87 74

GFSNGP_prec_cloud_117.txt.gz
Cloud_Cover
100 100 100 100 16 84 100 100 100 100 100 100 100 100 100 100 100 100 100 100 100 100 100 100 100 100 100 100 100 100 100 100 100 100 100 100 100 100 100 99 100 100 31 83
100 100 100 100 100 100 100 100 100 100 100 100 100 100 100 100 100 100 28 100 100 100 100 100 100 100 100 100 100 100 100 100 100 100 100 100 100 100 100 100 100 100 39 100
100 100 100 100 100 97 100 100 100 100 100 100 100 100 100 100 100 74 70 94 100 100 100 100 100 100 100 100 100 100 100 100 100 100 100 100 100 54 100 100 100 100 98 100
100 100 100 100 100 100 100 100 100 100 100 100 100 100 100 100 100 100 100 100 100 100 100 100 100 100 100 100 100 100 100 100 100 100 100 100 100 97 100 100 100 94 100 100
100 100 100 100 100 100 99 100 100 100 100 100 100 100 100 100 100 100 100 100 100 100 70 71 100 100 100 75 98 76 100 100 100 100 100 100 100 100 100 100 93 100 100 100
100 100 100 100 100 100 100 100 100 100 100 100 100 100 100 100 100 100 100 100 100 100 92 100 100 100 92 99 100 100 100 100 100 100 100 100 100 100 100 100 100 100 100 100
74 65 100 100 100 100 100 100 100 100 100 100 100 100 100 100 100 100 100 100 100 99 100 100 100 100 100 100 100 100 96 100 100 100 100 100 100 100 100 100 100 100 100 100
100 100 100 100 92 98 100 100 100 100 100 100 100 100 100 100 100 100 100 100 100 100 82 77 84 100 100 100 100 100 96 100 100 100 100 100 100 100 100 100 100 100 100 100
98 100 100 100 100 100 100 100 100 100 100 100 100 100 100 100 100 100 100 100 100 99 96 98 85 99 100 100 91 89 100 100 100 100 100 100 100 100 100 100 100 100 100 100
93 100 100 100 100 100 100 100 100 98 90 100 100 100 99 100 83 94 100 99 100 100 100 100 88 100 100 100 100 100 100 100 100 100 100 100 100 100 100 100 100 100 100 100
74 86 100 100 100 100 100 99 74 100 100 97 99 91 99 97 100 100 98 81 92 97 98 86 86 99 100 100 100 100 100 100 100 100 100 100 100 100 100 100 100 100 100 100
98 96 100 100 100 98 100 100 80 85 100 100 99 100 100 100 100 100 89 98 96 86 92 100 100 100 100 100 100 100 100 100 100 100 100 100 100 100 100 100 100 100 100 100
100 98 90 99 100 100 100 100 100 100 100 100 94 100 100 100 100 100 100 84 100 94 93 100 100 100 100 100 100 100 100 100 100 100 100 100 100 100 100 100 100 100 100 100
99 100 100 100 96 100 100 100 100 100 100 100 100 100 100 100 100 100 100 100 97 90 94 100 100 100 100 100 100 100 100 100 100 100 100 100 100 100 100 100 100 100 100 100
98 100 100 100 100 96 100 100 100 100 100 100 100 100 100 100 100 100 100 96 80 60 100 87 98 100 100 100 100 100 100 100 100 100 100 100 100 100 100 100 100 100 100 100
100 100 100 100 100 100 100 100 100 100 100 100 100 100 100 100 100 100 100 100 100 100 100 98 94 100 100 100 100 100 100 100 100 100 100 100 100 100 100 100 100 100 100 100
99 96 100 100 100 100 100 100 100 100 100 100 100 100 100 100 100 100 100 100 78 76 100 100 100 97 100 100 100 100 100 100 100 100 100 100 100 100 100 100 100 100 100 100
65 71 75 100 100 100 91 100 100 100 100 100 100 100 100 90 94 91 100 100 99 99 70 87 100 100 96 100 100 100 100 100 100 100 100 100 100 100 100 100 100 100 100 100
64 42 56 94 61 74 99 100 99 100 100 100 100 86 66 87 99 100 100 100 100 100 99 98 100 98 100 100 100 100 100 100 100 100 100 100 100 100 100 100 100 100 100 100
92 97 85 38 58 97 77 73 64 95 100 100 100 100 100 100 100 100 100 100 100 99 67 85 100 100 100 100 100 100 100 100 100 100 100 100 100 100 100 100 100 100 100 100
5 22 68 67 88 100 100 100 75 90 83 78 84 100 80 99 100 100 99 97 89 79 76 77 76 100 100 96 100 86 99 100 98 100 99 79 98 100 100 100 100 100 100 100
31 35 62 23 32 59 80 88 100 100 100 65 97 82 90 78 81 74 89 80 95 83 75 89 93 97 65 72 92 100 100 100 98 95 88 68 84 97 69 86 76 85 100 100
100 100 100 100 100 99 95 61 8 19 19 12 33 69 84 57 71 78 91 86 91 92 95 100 99 81 75 82 90 82 72 68 66 81 86 63 70 86 84 95 90 75 73 94
10 6 6 27 48 88 81 48 5 5 5 5 5 41 98 100 88 71 46 98 84 72 76 80 86 80 80 72 81 40 35 84 79 45 19 54 20 38 57 66 58 53 41 60
5 27 77 85 92 21 8 97 87 93 98 97 38 6 6 5 10 12 5 6 67 86 80 92 96 96 91 82 78 63 85 75 90 69 83 86 63 70 85 81 83 92 90 79
96 66 50 68 34 82 98 99 100 100 100 100 87 47 38 26 84 91 76 82 94 85 64 40 91 94 86 79 86 80 63 65 71 79 72 75 77 61 72 78 65 67 86 90
16 10 74 78 100 51 5 8 86 92 100 100 98 90 67 83 78 91 100 100 100 100 100 90 13 38 66 84 91 84 84 95 90 82 94 95 80 80 83 91 81 78 76 83

GFSNGP_prec_cloud_120.txt.gz
Cloud_Cover
100 100 100 100 97 93 43 99 100 100 100 100 100 100 100 100 100 100 100 100 100 100 100 100 100 100 96 100 100 64 98 100 98 71 96 100 97 100 100 100 100 100 100 97
98 100 100 100 100 100 100 84 100 100 100 100 100 100 100 100 100 100 100 100 100 100 100 100 100 100 100 100 100 99 100 100 100 97 100 100 100 100 100 100 100 100 100 96
100 100 100 99 100 100 100 100 100 100 100 100 100 100 100 100 100 100 100 100 100 100 100 100 100 100 100 100 100 100 100 100 100 100 100 100 100 100 100 100 100 100 100 100
100 100 100 100 100 100 100 100 100 100 100 100 100 100 100 100 100 100 100 98 100 100 100 100 100 100 100 100 100 100 100 100 97 100 100 100 100 100 100 100 100 100 100 100
100 100 100 100 100 100 100 100 100 100 100 100 100 100 100 100 100 100 100 100 100 98 99 100 100 100 100 100 100 100 100 100 100 100 100 100 100 100 100 100 100 100 100 100
100 100 100 100 100 100 100 100 100 100 100 100 100 100 100 100 100 100 100 100 96 89 53 100 100 100 100 100 100 100 100 100 100 100 100 100 100 100 100 100 100 100 100 96
100 100 100 100 92 99 88 100 100 100 100 100 100 97 100 100 100 100 100 100 92 34 67 100 100 100 97 100 100 100 95 75 92 99 100 100 100 100 100 100 100 100 100 100
83 85 100 100 100 96 100 98 100 100 100 100 100 100 100 100 100 100 100 100 100 100 99 91 99 100 100 94 82 91 70 74 85 82 100 100 100 100 100 100 100 100 100 100
100 96 100 99 100 100 100 100 94 75 96 100 100 100 100 100 100 100 99 100 99 100 100 100 98 100 100 99 85 86 70 86 88 99 100 100 100 100 100 100 100 100 100 100
97 99 100 100 100 100 100 100 96 100 100 100 100 100 98 80 89 100 84 76 25 76 86 76 100 100 100 99 99 75 65 86 97 100 100 100 100 100 100 100 100 100 100 100
97 100 100 100 100 100 100 94 99 100 98 95 86 74 70 55 95 100 73 5 11 93 94 88 98 100 100 99 98 74 74 82 98 100 100 100 100 100 100 100 100 100 100 100
47 72 98 100 100 81 99 100 72 100 97 82 92 64 75 56 89 92 69 63 74 82 81 88 94 99 100 99 98 100 95 100 100 100 100 100 100 100 100 100 100 100 100 100
100 88 53 98 90 100 100 100 100 100 100 97 95 96 73 100 100 92 93 68 100 100 90 92 92 92 92 82 100 100 100 100 100 100 100 100 100 100 100 100 100 100 100 100
98 100 43 89 96 98 100 100 100 100 100 100 100 100 100 100 89 100 100 96 100 96 79 97 100 100 94 100 100 100 100 100 100 100 100 100 100 100 100 100 100 100 100 100
98 88 94 90 63 100 100 100 100 100 100 100 100 100 100 100 100 100 100 100 100 100 100 88 94 100 82 100 100 100 100 100 100 100 100 100 100 100 100 100 100 100 100 100
100 99 49 5 46 64 93 100 100 100 100 100 100 100 100 100 100 100 100 100 100 100 100 99 96 100 89 67 100 100 100 100 100 100 100 100 100 100 100 100 100 100 100 100
95 97 93 95 67 82 91 100 100 100 100 100 100 100 100 100 100 100 100 100 100 96 100 100 100 88 99 100 80 100 100 100 100 100 100 100 100 100 100 100 100 100 100 100
94 100 100 93 86 86 91 100 100 100 99 99 100 100 100 100 100 100 100 100 100 100 94 96 100 88 72 78 87 85 96 100 100 100 100 100 100 100 100 100 100 100 100 100
44 79 96 97 92 96 100 99 98 98 97 70 84 91 100 100 100 89 100 100 100 99 92 85 81 94 99 90 79 88 83 96 100 100 100 100 100 100 100 100 100 100 100 100
67 72 82 77 74 64 59 62 52 69 82 72 98 98 97 93 96 96 92 97 97 80 99 98 99 100 100 92 60 80 88 86 100 100 100 100 100 100 100 100 100 100 100 100
18 6 53 76 96 60 68 42 50 87 97 72 89 97 99 100 100 100 91 88 99 98 97 98 100 98 91 79 67 74 76 94 94 90 100 100 100 100 100 100 100 100 100 100
60 71 70 55 58 99 89 67 33 5 14 5 53 90 82 90 99 97 95 98 100 100 100 100 100 99 82 78 77 78 79 79 88 89 99 99 100 100 100 100 100 100 99 100
58 58 57 37 34 26 47 36 49 5 39 33 55 58 35 65 40 37 90 64 95 78 87 100 100 100 100 100 95 85 93 97 90 94 95 86 97 98 100 100 99 94 99 100
56 18 25 14 50 38 25 5 7 5 5 9 28 12 27 68 73 27 9 38 18 27 59 58 73 80 90 93 99 100 100 100 100 100 100 100 99 97 100 100 100 100 99 95
15 38 44 90 95 82 96 52 70 71 66 93 22 8 6 5 5 8 5 60 17 30 5 10 57 61 74 91 100 100 100 100 100 100 100 100 100 100 100 100 100 100 100 92
71 26 59 26 34 52 64 53 84 92 100 92 74 51 24 52 40 39 33 51 56 42 19 36 52 63 71 78 72 90 98 100 100 100 100 100 100 100 100 100 100 100 87 63
74 65 93 77 68 36 62 18 76 83 80 79 88 73 6 30 32 52 71 64 77 72 6 5 33 37 56 76 69 68 85 86 92 88 82 62 67 85 88 94 100 98 95 92

GFSNGP_prec_cloud_123.txt.gz
Cloud_Cover
100 100 100 100 100 100 100 100 100 100 100 100 100 100 100 100 100 100 100 100 100 100 100 100 100 100 100 100 98 100 100 84 75 95 100 100 100 100 56 100 100 100 100 100
100 100 100 100 100 100 99 100 100 100 100 100 100 100 100 100 100 100 100 100 100 100 100 100 100 100 100 100 100 100 100 100 100 100 100 100 100 100 100 100 100 100 100 100
100 100 100 100 100 100 100 100 100 100 100 100 100 100 100 100 100 100 100 100 100 100 100 100 100 100 100 100 100 100 100 99 100 100 100 100 100 96 100 100 100 100 100 100
100 100 100 100 100 100 100 100 100 100 100 100 100 100 100 100 100 100 100 100 100 100 100 100 100 100 100 100 100 100 100 100 100 100 100 100 100 100 100 100 100 100 100 100
100 100 100 100 99 100 100 100 100 100 100 100 100 100 100 100 100 100 100 100 100 98 100 100 100 100 100 100 100 100 100 100 100 100 100 100 100 100 100 100 100 100 100 100
100 100 100 100 72 100 100 100 100 100 100 100 100 100 100 100 100 100 100 100 90 74 99 100 100 100 100 100 100 100 100 100 100 100 100 100 100 100 100 100 100 100 100 100
100 100 99 100 100 100 100 100 100 100 100 100 100 100 98 100 100 100 100 100 100 100 88 100 100 100 100 100 100 100 94 71 100 100 100 100 100 100 100 100 100 100 100 100
100 100 100 100 100 100 100 100 100 100 98 100 100 100 97 100 99 100 100 100 96 81 100 100 100 100 100 100 98 92 98 99 100 99 100 100 100 100 100 100 100 100 100 100
99 100 100 100 100 100 100 100 100 100 100 100 100 100 100 98 70 84 100 100 100 100 81 100 100 100 100 100 100 51 28 41 80 88 100 100 77 100 100 100 100 100 100 100
84 81 100 100 100 100 100 98 94 99 100 91 86 98 100 100 100 99 94 97 100 100 100 100 100 100 100 100 100 78 25 42 57 86 81 88 90 100 100 100 100 100 100 100
100 87 87 98 100 100 100 90 91 77 72 93 90 100 96 100 100 97 48 37 66 94 100 100 99 100 100 100 100 100 56 27 75 92 91 94 100 100 100 100 100 100 100 100
90 98 98 100 100 94 79 100 100 100 69 71 67 95 99 100 100 99 84 70 89 100 100 100 96 100 100 100 100 100 85 84 82 98 100 100 100 100 100 100 100 100 100 100
100 100 90 95 96 82 99 84 88 74 78 93 88 91 89 96 100 100 98 83 97 100 100 99 89 97 98 100 100 100 100 100 100 100 100 100 100 100 100 100 100 100 100 100
99 100 92 99 96 84 100 93 100 100 93 100 100 95 100 100 95 100 100 100 98 96 89 99 96 100 99 91 100 100 100 77 100 100 100 100 100 100 100 100 100 100 100 100
100 72 69 71 56 78 80 90 94 98 99 100 100 100 100 100 100 100 100 100 100 100 100 100 100 97 100 95 82 100 99 97 100 100 100 100 100 100 100 100 100 100 100 100
90 64 19 100 85 87 84 70 78 100 100 100 100 100 100 100 100 100 100 100 100 100 100 100 100 100 100 100 82 74 90 71 94 100 100 100 100 100 100 100 100 100 100 100
96 97 95 72 80 87 83 78 87 100 100 100 100 100 100 100 81 95 100 100 100 100 100 100 100 88 95 84 83 99 87 91 80 100 100 100 100 100 100 100 100 100 100 100
75 96 92 83 85 69 79 99 100 100 97 89 79 65 91 100 97 88 99 100 100 100 100 100 100 94 81 90 72 80 81 88 95 100 100 100 100 100 100 100 100 100 100 100
6 67 63 85 53 27 80 98 97 78 72 76 83 87 87 71 68 90 69 68 86 100 100 89 96 98 85 93 80 62 71 84 86 90 91 100 100 100 100 100 100 100 100 100
49 30 7 14 5 5 56 87 55 90 93 5 10 18 56 83 74 68 86 77 100 100 99 96 74 89 90 85 92 82 77 73 73 69 72 82 94 100 100 100 100 100 100 100
53 21 54 53 100 99 99 76 33 64 99 68 5 46 54 46 11 8 7 29 88 98 75 66 81 80 99 100 94 76 74 81 82 86 68 72 63 97 100 100 100 100 100 100
60 73 99 75 86 100 100 64 6 35 69 97 99 77 75 75 15 5 62 83 62 56 32 41 48 83 93 96 99 100 100 100 98 89 84 67 71 84 93 98 100 100 100 100
58 45 55 64 38 60 59 35 51 16 61 90 39 27 17 63 48 67 76 19 5 35 6 19 66 29 65 76 90 95 99 100 100 100 100 100 99 86 77 87 85 78 88 96
81 64 70 63 57 22 5 5 15 12 27 34 83 88 38 71 38 37 59 83 28 36 88 78 40 63 60 54 71 68 90 97 98 99 100 100 100 100 100 100 100 100 98 93
75 79 100 85 64 87 57 31 60 67 54 56 33 19 7 7 5 7 46 62 43 18 22 55 97 50 5 52 78 83 87 77 72 80 100 100 100 100 100 100 100 100 100 100
78 76 78 77 89 87 69 64 77 82 76 92 91 56 31 56 68 76 71 83 60 24 12 65 81 88 56 19 70 93 94 48 54 55 63 83 72 88 100 100 100 100 100 100
74 74 82 85 78 71 84 69 79 98 77 79 96 65 6 49 68 66 57 66 100 92 46 84 89 71 72 98 90 85 74 71 64 40 74 62 80 84 86 86 81 78 96 100

GFSNGP_prec_cloud_126.txt.gz
Cloud_Cover
5 97 100 100 100 100 100 100 100 100 100 100 100 100 100 100 100 100 100 100 100 100 100 100 100 100 100 100 100 100 100 97 98 100 100 100 100 100 96 46 54 76 88 100
5 88 100 100 100 100 100 100 100 100 100 100 100 100 100 100 100 100 100 100 100 100 100 100 100 100 100 100 100 100 96 97 100 95 65 88 100 100 100 87 56 90 100 100
62 100 100 100 100 100 100 100 100 100 100 100 100 100 100 100 100 100 100 100 100 100 100 100 100 100 100 100 100 100 100 100 100 100 100 100 100 100 100 100 72 100 100 100
55 100 100 100 100 100 100 100 100 100 100 100 100 100 100 100 100 100 100 100 100 100 100 100 100 100 100 100 100 100 100 100 100 100 100 100 100 100 100 100 100 100 100 100
90 100 100 100 100 100 100 100 100 100 100 100 100 100 100 100 100 100 100 100 100 100 100 100 100 100 100 100 100 100 100 100 100 100 100 100 100 100 100 100 100 100 100 100
39 100 100 100 100 100 100 100 100 100 100 90 100 100 100 100 100 100 100 100 100 100 100 100 100 100 100 100 100 100 100 100 100 100 100 100 100 100 100 100 100 100 100 100
94 99 100 99 100 97 93 100 100 100 100 99 100 100 100 100 100 100 100 100 100 100 100 100 100 100 100 100 100 84 100 84 100 100 100 100 100 100 100 100 100 100 100 100
98 14 100 100 97 98 100 100 100 100 100 100 100 100 100 100 100 100 100 100 100 100 100 100 100 100 100 100 100 100 87 31 91 78 100 100 100 96 100 100 100 100 100 100
71 97 97 100 100 100 100 100 100 100 100 100 100 100 100 95 100 100 100 100 98 89 94 100 100 100 100 100 100 98 5 16 31 84 97 100 100 100 100 100 100 100 100 100
65 99 100 100 100 99 100 100 99 95 86 88 89 100 85 96 91 62 100 100 100 100 100 100 99 100 100 100 100 85 99 82 76 90 84 90 99 98 100 100 100 100 100 100
72 99 100 98 100 100 92 97 84 100 81 80 81 98 80 73 91 83 72 74 82 100 100 100 100 98 97 100 100 99 100 98 81 98 94 90 96 100 100 100 100 100 100 100
97 98 99 100 100 100 99 92 93 85 99 97 86 97 15 93 99 100 96 79 81 76 89 95 92 100 80 100 100 100 100 100 94 90 100 100 88 82 86 100 100 100 100 100
100 100 100 76 91 62 99 100 100 89 93 96 93 77 71 96 100 98 78 80 91 100 96 97 93 95 89 97 100 99 99 91 100 100 100 99 100 100 98 96 100 100 100 100
100 100 93 100 87 91 100 96 90 70 72 90 96 92 100 97 100 98 100 100 98 99 100 98 99 100 98 87 99 85 78 68 99 100 100 100 100 100 100 100 100 100 100 100
92 45 54 47 68 92 97 89 78 75 73 89 100 99 96 100 100 100 100 100 100 100 100 100 100 98 100 100 91 100 98 90 83 84 85 88 95 100 100 100 100 100 100 100
82 70 34 5 5 5 14 6 23 97 88 100 100 99 100 99 100 100 100 100 100 100 100 100 100 100 100 100 100 100 96 96 76 88 91 84 79 100 100 100 100 100 100 100
100 98 87 72 70 33 27 58 37 94 100 100 98 52 28 39 44 60 100 100 100 100 100 100 100 100 100 100 100 100 100 99 76 82 94 96 86 100 100 100 100 100 100 100
82 92 87 71 38 5 77 99 100 86 83 46 41 14 5 35 71 67 72 70 81 100 100 100 100 100 100 100 100 100 100 100 92 99 89 98 94 93 100 100 100 100 100 100
5 5 5 5 5 5 49 64 53 14 19 24 22 96 94 100 74 67 13 17 53 64 92 98 93 95 100 100 95 97 100 100 100 67 55 69 73 80 95 100 100 100 100 100
45 5 5 5 5 5 80 88 68 93 96 24 34 14 27 66 68 49 12 95 100 100 81 56 32 58 87 90 75 92 82 100 95 78 61 66 78 68 68 95 100 100 100 100
7 6 5 11 100 100 100 80 39 100 99 5 5 60 67 79 80 74 52 81 92 34 5 5 45 70 49 32 47 72 70 71 88 87 69 81 99 87 70 74 94 100 100 100
43 63 97 73 83 100 98 54 48 96 100 100 100 98 34 29 28 5 67 99 65 44 34 27 20 66 37 36 19 47 62 61 77 78 85 84 98 100 100 100 100 100 100 100
58 93 97 77 65 81 75 25 56 53 87 78 33 26 61 97 100 86 76 17 5 46 6 15 48 34 40 23 51 54 44 36 73 82 81 78 91 97 99 100 100 100 100 100
70 85 78 67 68 92 81 69 62 54 43 52 90 99 56 57 9 43 72 74 39 68 88 95 42 86 51 50 34 73 77 83 90 85 63 53 59 58 88 95 95 97 100 99
90 79 70 80 86 74 69 81 95 98 100 96 58 55 6 29 5 9 54 59 49 26 46 67 100 78 68 86 100 100 100 100 100 79 99 92 88 88 86 85 76 87 91 89
48 70 84 89 99 94 90 65 73 73 83 86 99 78 64 52 77 87 65 91 60 22 36 85 99 100 100 87 100 100 100 75 87 88 96 100 91 85 79 73 58 64 85 88
97 100 100 100 100 96 76 76 79 95 90 72 98 61 17 55 80 75 66 96 100 100 95 100 100 83 82 100 98 100 93 82 91 80 99 100 99 100 100 91 99 100 100 88

GFSNGP_prec_cloud_132.txt.gz
Cloud_Cover
99 98 90 100 100 62 88 100 100 99 100 100 100 100 100 100 100 100 100 100 100 100 100 100 100 100 100 100 100 100 100 100 100 100 100 100 100 100 98 99 64 99 100 94
100 60 100 100 100 82 89 100 100 100 100 100 100 100 100 100 100 100 100 100 100 100 100 100 100 100 100 100 100 100 100 100 100 100 100 100 100 100 94 100 100 100 100 100
97 87 100 100 96 100 96 92 100 100 100 100 100 100 100 100 100 100 100 100 100 100 100 100 100 100 100 100 100 100 100 100 100 100 100 100 100 100 100 100 100 100 100 100
53 80 100 94 100 99 81 100 100 100 100 100 100 93 100 100 100 100 100 100 100 100 100 100 100 100 100 100 100 100 100 100 100 100 100 100 100 100 100 100 100 100 100 100
99 29 90 100 84 100 100 100 100 100 100 100 74 100 100 100 100 100 100 100 100 100 100 100 100 100 100 100 100 100 100 100 100 100 100 100 100 100 100 100 100 100 100 100
100 47 100 98 93 100 100 100 100 100 100 100 100 100 100 100 100 100 100 100 100 100 100 100 100 100 100 100 100 100 100 100 100 100 100 100 100 100 100 100 100 100 97 89
85 94 69 66 9 94 100 100 100 100 100 100 93 98 100 96 100 100 100 100 100 100 100 100 100 100 100 100 100 100 100 100 100 98 99 100 100 89 84 100 100 100 92 93
86 87 99 6 31 66 93 100 100 100 100 100 100 100 94 98 95 94 98 100 100 100 100 100 100 100 100 100 100 100 100 100 100 100 100 100 100 100 98 95 100 100 100 91
83 95 84 17 92 97 100 100 100 99 100 100 100 100 94 95 99 93 100 100 100 100 100 100 100 100 100 100 100 100 100 100 100 100 100 100 100 100 100 100 96 87 100 100
94 96 66 65 43 100 100 100 100 96 83 88 89 95 94 98 100 96 100 100 100 100 100 100 100 100 100 100 100 100 100 100 100 100 100 100 100 100 100 100 100 97 100 100
99 99 87 82 89 98 100 100 100 100 90 86 94 92 97 100 100 100 95 100 100 100 100 100 100 100 100 100 100 100 100 100 100 100 100 100 100 98 100 100 100 100 100 100
100 65 97 99 96 62 93 93 99 100 99 92 91 100 100 100 100 100 100 100 100 100 100 100 100 98 100 100 100 100 100 100 99 100 100 100 100 100 100 100 100 100 100 100
49 81 96 100 100 76 100 99 93 88 95 100 100 100 100 97 100 98 100 100 100 100 100 100 100 100 100 100 100 100 100 100 100 100 100 100 98 99 98 79 100 100 100 100
72 78 96 99 97 100 100 96 84 95 100 100 100 100 100 98 100 100 100 98 100 100 100 100 100 100 100 100 100 100 100 100 100 100 100 100 99 100 100 98 92 99 93 100
100 86 72 98 100 100 100 94 100 100 98 100 100 100 100 100 88 98 100 100 100 99 100 99 100 100 100 100 100 100 100 99 98 99 100 100 100 100 100 100 100 96 97 88
60 50 64 69 86 89 93 96 97 99 100 99 100 100 79 33 42 92 100 100 96 98 100 100 100 100 100 100 100 100 100 100 100 100 100 100 100 100 100 100 100 100 100 100
7 61 86 89 81 65 44 5 9 67 98 88 71 21 5 5 12 76 100 100 100 100 100 100 100 100 100 100 100 100 100 100 100 100 100 100 100 100 100 100 100 100 100 100
68 76 93 80 68 54 7 5 5 26 82 62 14 14 19 55 69 97 100 100 100 92 96 100 100 100 100 100 100 100 100 100 100 100 100 100 100 100 100 100 100 100 100 100
67 36 50 67 21 5 5 5 15 53 60 42 5 5 5 31 91 97 94 89 90 81 97 100 100 100 100 99 99 100 100 100 100 100 100 100 100 100 100 100 100 100 100 100
19 38 49 36 5 5 24 62 76 96 94 11 5 5 5 5 8 32 95 95 100 99 100 87 95 100 91 82 68 100 100 100 100 100 100 100 100 100 100 100 100 100 100 100
91 96 87 54 83 69 55 63 43 66 68 14 7 11 62 73 50 37 78 80 96 63 65 11 5 30 50 53 63 100 100 100 100 100 100 100 100 100 100 100 100 100 100 100
94 71 72 70 58 90 91 94 52 38 51 21 5 5 67 81 74 46 29 81 99 5 36 45 17 48 45 68 100 100 100 100 100 100 100 100 100 100 100 100 100 100 100 100
67 14 51 81 61 63 98 98 74 49 55 20 9 44 77 86 76 83 85 21 10 19 70 75 27 5 77 100 100 100 100 100 100 100 100 100 100 100 100 100 100 100 100 100
63 70 70 84 96 68 99 100 86 44 39 8 5 5 60 100 95 72 41 19 9 45 85 45 27 8 99 100 100 100 100 100 100 100 100 100 100 100 100 100 100 100 100 100
61 81 99 93 91 100 96 83 73 61 39 100 91 12 6 5 100 100 100 98 16 58 100 15 9 49 100 100 100 100 100 100 100 100 100 100 100 100 100 100 100 100 100 100
56 27 46 81 88 82 98 100 60 88 100 100 100 100 100 95 98 95 100 78 83 48 100 100 95 94 100 100 100 100 100 100 100 100 100 100 100 100 100 100 100 100 100 100
75 74 84 60 72 100 86 80 74 91 94 100 100 98 100 100 97 84 79 100 100 100 100 100 100 80 84 100 100 100 100 100 99 100 100 100 100 100 100 100 100 100 100 100

GFSNGP_prec_cloud_135.txt.gz
Cloud_Cover
100 100 100 68 52 39 87 100 100 84 96 97 100 100 100 100 78 100 100 100 100 100 100 100 100 100 100 100 100 100 100 100 100 100 100 100 100 100 100 100 100 100 100 98
100 67 36 6 82 100 93 99 100 100 100 100 100 100 100 100 98 100 100 100 100 100 100 100 100 100 100 100 100 100 100 100 100 100 100 100 100 100 100 100 100 100 100 86
100 100 62 100 61 46 89 99 100 100 100 100 100 100 100 100 85 100 99 100 100 100 100 100 100 100 100 100 100 100 100 100 100 100 100 100 100 100 100 100 100 100 100 100
100 35 99 85 59 83 100 100 100 100 100 100 92 100 100 77 80 97 100 98 100 100 100 100 100 100 100 100 100 100 100 100 100 100 100 100 83 90 98 98 64 81 78 90
44 100 80 98 92 89 97 100 100 100 100 100 100 99 100 69 77 92 100 94 97 100 100 100 100 100 100 100 100 100 100 100 100 100 100 100 100 100 100 98 100 97 100 100
97 96 100 100 71 30 87 100 100 100 100 100 93 100 99 82 92 87 89 97 99 100 100 100 100 100 100 100 100 100 100 100 100 100 100 100 100 100 100 100 100 100 100 100
93 64 95 92 76 52 100 94 100 100 100 100 99 86 100 100 98 92 100 99 99 100 100 100 100 100 100 100 100 100 100 100 100 100 100 100 100 100 100 100 100 100 100 100
93 96 96 20 56 74 89 96 99 100 100 100 100 100 100 100 100 100 98 100 100 100 100 100 100 100 100 100 100 100 100 100 100 100 100 100 100 100 100 100 100 100 100 100
38 97 87 62 39 94 89 100 100 100 100 100 100 100 99 99 100 99 100 100 100 100 100 100 100 100 100 100 100 100 100 100 100 100 100 100 100 100 100 100 100 100 100 100
9 61 83 97 100 100 100 100 82 91 98 99 100 97 96 99 100 100 89 100 86 100 100 100 100 100 100 100 100 100 100 100 100 100 100 100 100 100 100 100 100 100 100 100
84 94 90 100 100 100 100 82 86 86 94 98 99 99 97 100 100 100 100 100 100 100 100 100 100 100 100 100 100 100 100 100 100 100 100 100 100 98 100 100 100 100 100 100
92 24 73 98 100 100 100 100 100 100 99 88 93 98 100 100 100 98 100 100 100 100 100 100 100 100 100 100 100 100 100 100 100 100 100 100 100 100 100 100 100 100 100 100
59 60 96 87 85 100 100 94 97 92 92 92 86 96 100 95 100 98 100 100 100 100 100 100 100 100 100 100 100 100 100 100 100 100 100 100 100 100 100 54 46 35 99 99
93 50 90 77 96 97 93 83 45 87 94 100 96 95 96 98 88 93 100 99 100 100 100 100 100 99 100 100 100 100 100 100 100 100 100 100 100 100 100 99 95 90 54 97
100 98 65 99 94 99 92 98 98 100 95 97 96 100 77 28 5 69 100 99 100 98 100 100 100 100 100 100 100 100 100 100 100 99 100 100 100 100 100 100 100 100 60 39
91 99 94 82 99 95 97 97 96 97 96 99 98 41 5 5 15 72 100 100 96 98 100 100 100 100 100 100 100 100 100 100 100 100 100 100 100 100 100 100 100 100 100 98
81 92 91 86 86 93 88 90 67 44 5 5 5 5 5 5 5 60 100 100 100 100 100 100 100 96 100 61 100 100 100 100 100 100 100 100 100 100 100 100 100 100 100 100
97 92 90 77 89 75 7 5 5 5 5 5 5 4 6 6 54 91 100 100 100 100 100 100 97 96 88 47 99 100 100 100 100 100 100 100 100 100 100 100 100 100 100 100
78 80 84 86 79 14 5 5 5 5 5 11 5 5 5 33 95 93 88 87 86 99 99 82 94 96 83 5 59 100 100 100 100 100 100 100 100 100 100 100 100 100 100 100
65 46 5 5 5 5 5 5 9 89 93 5 5 5 5 5 5 66 98 90 74 88 100 29 16 38 5 41 48 100 100 100 100 100 100 100 100 100 100 100 100 100 100 100
7 11 9 6 11 8 12 74 80 78 58 5 33 15 60 42 5 60 96 100 97 9 40 5 5 5 5 38 53 100 100 100 100 100 100 100 100 100 100 100 100 100 100 100
92 98 98 97 74 88 89 69 49 74 65 62 37 18 16 37 10 19 4 70 78 4 10 18 5 4 33 61 100 100 100 100 100 100 100 100 100 100 100 100 100 100 100 100
100 98 79 62 32 52 88 100 86 40 62 6 5 5 85 90 81 89 93 39 5 3 42 92 4 5 27 100 100 100 100 100 100 100 100 100 100 100 100 100 100 100 100 100
100 91 76 78 98 94 93 100 73 79 50 44 33 67 66 52 82 45 30 17 5 43 86 9 7 5 99 100 100 100 100 100 100 100 100 100 100 100 100 100 100 100 100 100
91 96 100 100 92 47 64 99 78 88 45 43 66 24 6 24 89 100 100 99 16 52 100 91 5 7 100 100 100 100 100 100 100 100 100 100 100 100 100 100 100 100 100 100
86 64 66 82 10 42 49 73 54 39 60 80 100 100 100 98 91 95 99 68 99 94 90 100 100 91 100 100 100 100 100 100 100 100 100 100 100 100 100 100 100 100 100 100
92 89 90 74 15 49 40 65 39 64 86 99 100 100 100 100 100 98 100 100 100 100 100 100 100 100 100 100 100 100 100 100 100 100 100 100 100 100 100 100 100 100 100 100

GFSNGP_prec_cloud_138.txt.gz
Cloud_Cover
100 100 100 100 100 86 38 65 100 78 57 70 79 76 100 100 99 100 90 100 100 100 100 100 100 100 100 100 100 100 100 100 100 100 100 100 100 100 100 100 100 100 100 100
100 100 100 100 100 100 100 62 94 36 97 75 100 99 57 100 100 100 100 99 100 100 100 100 100 100 100 100 100 100 100 100 100 100 100 100 100 100 100 100 100 100 100 100
100 100 100 100 100 100 39 5 16 79 46 99 100 86 79 100 100 100 100 100 100 100 100 100 100 100 100 100 100 100 100 100 100 100 100 100 100 100 100 100 100 100 100 100
100 100 100 100 100 58 22 19 64 50 5 27 77 70 75 100 100 100 94 100 100 100 100 100 100 100 100 100 100 100 100 100 100 100 100 100 100 100 100 100 100 100 100 100
100 100 100 98 77 12 5 81 100 100 97 85 91 99 93 75 100 100 98 100 100 100 100 100 100 100 100 100 100 100 100 100 100 100 100 100 100 100 100 100 100 100 100 100
100 69 100 99 65 5 46 97 99 91 100 99 62 100 100 78 97 100 93 100 100 100 100 100 100 100 100 100 86 99 100 100 100 100 100 100 100 100 100 96 100 100 100 100
100 100 85 83 60 5 75 75 100 100 100 100 81 78 76 95 98 73 100 96 98 100 100 100 100 100 100 100 100 100 100 100 100 100 100 100 100 99 100 100 100 100 100 100
52 27 86 23 52 83 53 97 100 100 100 100 100 100 100 100 94 41 92 100 100 100 100 100 93 100 100 100 100 100 100 100 100 100 100 100 100 100 100 99 100 100 100 99
22 63 77 36 7 34 95 100 98 99 100 100 100 100 97 97 94 64 63 96 100 100 100 99 100 98 97 98 100 94 100 100 100 100 100 100 100 100 100 100 100 100 100 100
7 90 89 78 67 69 85 77 88 91 95 97 99 98 100 100 100 71 5 85 31 87 100 100 100 98 100 100 100 100 100 100 95 100 100 100 100 100 100 100 100 100 100 100
96 97 76 100 89 90 74 56 69 82 76 86 99 98 100 100 100 100 97 76 8 52 100 100 100 90 100 100 100 100 97 98 100 100 99 95 100 99 100 100 100 100 100 100
32 18 60 76 100 97 100 92 83 85 98 75 67 82 98 94 81 97 100 100 94 97 98 98 100 100 100 98 100 99 94 94 96 98 100 100 100 100 100 100 99 81 100 100
25 55 80 54 100 100 100 85 88 91 86 96 41 80 98 86 5 79 100 100 98 79 54 94 18 93 48 82 100 100 93 93 100 100 100 98 99 99 99 91 100 100 73 100
72 27 96 100 90 100 100 55 10 5 13 19 70 76 37 11 24 83 79 100 94 98 89 100 98 99 84 19 99 100 99 94 98 99 97 100 99 95 82 68 89 94 99 84
100 79 38 100 81 80 77 67 84 93 58 45 52 7 5 5 16 90 84 71 99 99 100 100 97 100 5 5 100 94 100 53 93 97 100 100 80 98 100 95 86 99 27 40
100 100 96 73 75 74 67 72 90 60 65 90 8 5 5 5 10 74 97 88 44 98 100 60 74 75 5 5 88 93 99 99 100 96 67 39 86 46 100 100 98 99 100 71
91 99 67 78 71 67 85 63 64 5 5 5 5 4 5 5 5 55 92 96 79 5 63 5 70 88 5 5 41 96 83 98 89 52 100 100 100 100 99 100 100 100 100 86
58 38 30 24 60 58 32 5 5 5 5 5 5 5 5 5 13 37 11 5 56 100 5 5 23 56 5 5 67 84 85 74 84 19 100 85 100 100 100 100 100 100 100 100
82 18 27 13 5 5 5 5 5 5 5 5 5 5 5 5 5 5 5 5 8 89 12 5 5 7 3 1 50 51 81 95 92 95 8 100 99 100 100 100 100 100 100 100
58 58 5 5 5 5 5 5 5 5 5 5 5 5 5 5 5 5 5 79 5 5 5 5 5 1 5 4 5 66 80 90 91 100 100 100 100 100 100 100 100 100 100 100
30 5 5 5 5 5 5 5 5 6 34 5 5 5 6 21 6 5 51 100 57 6 5 5 2 0 5 5 59 75 77 62 98 100 99 100 100 92 100 57 100 100 100 100
5 5 5 5 5 33 8 5 5 8 5 8 6 65 70 22 59 79 66 26 27 5 5 5 2 3 5 45 88 80 80 75 84 100 97 84 100 100 100 70 85 100 92 92
44 64 17 5 5 11 6 18 5 5 5 36 69 64 39 83 90 84 90 49 14 18 5 30 4 5 12 91 100 100 90 82 32 99 100 81 100 100 100 99 80 98 100 95
100 91 71 5 5 73 73 97 9 18 5 36 44 66 27 69 70 56 66 48 10 5 28 34 5 5 5 90 98 84 88 100 54 11 100 100 100 100 100 100 100 99 90 100
77 76 57 66 54 62 12 86 34 62 29 38 41 20 45 46 82 98 100 66 12 5 43 96 38 5 43 94 95 99 96 100 78 6 90 42 100 100 100 99 99 100 100 100
73 83 77 8 5 5 5 48 5 8 60 55 30 12 34 65 39 5 29 7 46 69 6 62 99 94 41 54 98 57 97 91 99 95 9 63 100 98 100 76 85 100 100 100
81 81 88 91 13 5 5 5 5 5 5 49 51 90 36 42 39 67 39 94 94 26 31 91 99 100 100 100 100 100 100 95 100 98 92 63 100 100 100 67 17 14 87 100